DLH561 FNBJ-EDDF

Flight info

Callsign DLH561
Flight time 8h 42m
Altitude 38000
Route VNA UR526 LIKAD UY339 MESIN UG861 DLA UA604 AS UR978 BOD UG362 EBA UG869 MAKEB UM858 DOPEL DCT DEC DCT UPDUT DCT CORSI DCT OKROK DCT AKUTI DCT TORTU DCT ERTEV DCT PEPAG DCT ABESI DCT LADOL T163 EMPAX EMPAX5B
Aircraft A343/H-SDE2E3FGHIJ3J5M1P2RWXYZ/LB1D1

Departure

Time 2026-04-14 00:16
Airport Dr. Antonio Agostinho Neto International Airport (FNBJ)

Arrival

Time 2026-04-14 08:59
Airport Frankfurt Main Airport (EDDF)
Time Latitude Longitude Altitude Speed Heading
2026-04-13 23:41 -9.05518 13.49849 542 ft 0 kts 323°
2026-04-14 00:02 -9.05523 13.49852 547 ft 2 kts 323°
2026-04-14 00:02 -9.05539 13.49865 549 ft 3 kts 323°
2026-04-14 00:02 -9.05554 13.49876 553 ft 2 kts 323°
2026-04-14 00:03 -9.05567 13.49886 552 ft 3 kts 308°
2026-04-14 00:03 -9.05574 13.49901 553 ft 3 kts 259°
2026-04-14 00:03 -9.05567 13.49918 557 ft 3 kts 231°
2026-04-14 00:03 -9.05558 13.49929 553 ft 1 kts 233°
2026-04-14 00:04 -9.05556 13.49932 553 ft 0 kts 233°
2026-04-14 00:07 -9.05563 13.49922 553 ft 4 kts 233°
2026-04-14 00:08 -9.05586 13.49892 554 ft 7 kts 233°
2026-04-14 00:08 -9.05623 13.49841 545 ft 10 kts 234°
2026-04-14 00:08 -9.05670 13.49780 545 ft 11 kts 225°
2026-04-14 00:08 -9.05715 13.49770 545 ft 6 kts 173°
2026-04-14 00:09 -9.05770 13.49803 545 ft 11 kts 142°
2026-04-14 00:09 -9.05823 13.49845 545 ft 8 kts 142°
2026-04-14 00:09 -9.05856 13.49871 545 ft 4 kts 142°
2026-04-14 00:09 -9.05881 13.49890 545 ft 5 kts 142°
2026-04-14 00:10 -9.05915 13.49916 542 ft 8 kts 142°
2026-04-14 00:10 -9.05964 13.49953 545 ft 10 kts 144°
2026-04-14 00:10 -9.06025 13.49999 545 ft 12 kts 141°
2026-04-14 00:10 -9.06041 13.50039 545 ft 5 kts 90°
2026-04-14 00:11 -9.06020 13.50092 547 ft 11 kts 57°
2026-04-14 00:11 -9.05963 13.50170 545 ft 16 kts 53°
2026-04-14 00:11 -9.05886 13.50276 545 ft 21 kts 53°
2026-04-14 00:11 -9.05791 13.50405 546 ft 24 kts 53°
2026-04-14 00:12 -9.05686 13.50548 547 ft 27 kts 53°
2026-04-14 00:12 -9.05578 13.50695 547 ft 24 kts 53°
2026-04-14 00:12 -9.05487 13.50819 548 ft 21 kts 53°
2026-04-14 00:12 -9.05386 13.50956 548 ft 25 kts 53°
2026-04-14 00:13 -9.05286 13.51093 547 ft 24 kts 53°
2026-04-14 00:13 -9.05180 13.51235 547 ft 26 kts 54°
2026-04-14 00:13 -9.05068 13.51389 548 ft 29 kts 53°
2026-04-14 00:13 -9.04943 13.51559 549 ft 31 kts 53°
2026-04-14 00:14 -9.04816 13.51732 550 ft 28 kts 56°
2026-04-14 00:14 -9.04828 13.51825 562 ft 8 kts 133°
2026-04-14 00:14 -9.04870 13.51859 564 ft 9 kts 140°
2026-04-14 00:14 -9.04936 13.51902 563 ft 10 kts 174°
2026-04-14 00:15 -9.04988 13.51879 565 ft 6 kts 229°
2026-04-14 00:15 -9.04991 13.51876 563 ft 0 kts 231°
2026-04-14 00:15 -9.05008 13.51854 565 ft 14 kts 233°
2026-04-14 00:15 -9.05187 13.51597 563 ft 81 kts 235°
2026-04-14 00:16 -9.05636 13.50952 558 ft 144 kts 234°
2026-04-14 00:16 -9.06306 13.49995 778 ft 178 kts 234°
2026-04-14 00:16 -9.07038 13.48946 1421 ft 186 kts 234°
2026-04-14 00:16 -9.07829 13.47825 1973 ft 207 kts 236°
2026-04-14 00:17 -9.08367 13.46408 2380 ft 229 kts 262°
2026-04-14 00:17 -9.08057 13.44751 2662 ft 253 kts 297°
2026-04-14 00:17 -9.07170 13.43214 3376 ft 259 kts 304°
2026-04-14 00:17 -9.06117 13.41719 4168 ft 262 kts 308°
2026-04-14 00:18 -9.04958 13.40266 4904 ft 267 kts 311°
2026-04-14 00:18 -9.03709 13.38846 5645 ft 271 kts 314°
2026-04-14 00:18 -9.02390 13.37469 6397 ft 274 kts 316°
2026-04-14 00:18 -9.00994 13.36138 7101 ft 277 kts 319°
2026-04-14 00:19 -8.99537 13.34871 7804 ft 281 kts 322°
2026-04-14 00:19 -8.97979 13.33655 8517 ft 284 kts 325°
2026-04-14 00:19 -8.96345 13.32513 9229 ft 287 kts 328°
2026-04-14 00:19 -8.94625 13.31463 9944 ft 290 kts 332°
2026-04-14 00:20 -8.93434 13.30816 10242 ft 298 kts 334°
2026-04-14 00:20 -8.91489 13.29906 10504 ft 316 kts 337°
2026-04-14 00:20 -8.89495 13.28814 10739 ft 335 kts 328°
2026-04-14 00:20 -8.87552 13.27412 11051 ft 349 kts 323°
2026-04-14 00:21 -8.85614 13.25894 11533 ft 355 kts 325°
2026-04-14 00:21 -8.83499 13.24566 12075 ft 359 kts 333°
2026-04-14 00:21 -8.81284 13.23430 12617 ft 363 kts 335°
2026-04-14 00:21 -8.78972 13.22359 13182 ft 367 kts 338°
2026-04-14 00:22 -8.76613 13.21341 13764 ft 370 kts 338°
2026-04-14 00:22 -8.74216 13.20344 14252 ft 374 kts 339°
2026-04-14 00:22 -8.71794 13.19350 14755 ft 377 kts 339°
2026-04-14 00:22 -8.69441 13.18384 15240 ft 380 kts 339°
2026-04-14 00:23 -8.66980 13.17369 15770 ft 384 kts 339°
2026-04-14 00:23 -8.64526 13.16351 16272 ft 387 kts 338°
2026-04-14 00:23 -8.62029 13.15311 16798 ft 390 kts 338°
2026-04-14 00:23 -8.59507 13.14257 17317 ft 394 kts 338°
2026-04-14 00:24 -8.56955 13.13190 17845 ft 397 kts 339°
2026-04-14 00:24 -8.54388 13.12116 18370 ft 400 kts 338°
2026-04-14 00:24 -8.51808 13.11038 18822 ft 403 kts 338°
2026-04-14 00:24 -8.49204 13.09948 19274 ft 405 kts 338°
2026-04-14 00:25 -8.46615 13.08867 19688 ft 409 kts 338°
2026-04-14 00:25 -8.43970 13.07762 20115 ft 412 kts 338°
2026-04-14 00:25 -8.41306 13.06649 20566 ft 415 kts 338°
2026-04-14 00:25 -8.38626 13.05530 21009 ft 417 kts 338°
2026-04-14 00:26 -8.35960 13.04417 21429 ft 420 kts 338°
2026-04-14 00:26 -8.33240 13.03281 21848 ft 423 kts 338°
2026-04-14 00:26 -8.30502 13.02139 22267 ft 426 kts 338°
2026-04-14 00:26 -8.27785 13.01005 22683 ft 428 kts 338°
2026-04-14 00:27 -8.25016 12.99849 23097 ft 431 kts 338°
2026-04-14 00:27 -8.22224 12.98685 23484 ft 434 kts 338°
2026-04-14 00:27 -8.19421 12.97515 23818 ft 436 kts 337°
2026-04-14 00:27 -8.16640 12.96356 24146 ft 438 kts 337°
2026-04-14 00:28 -8.13806 12.95174 24474 ft 441 kts 337°
2026-04-14 00:28 -8.10956 12.93985 24786 ft 444 kts 338°
2026-04-14 00:28 -8.08087 12.92789 25090 ft 447 kts 337°
2026-04-14 00:28 -8.05193 12.91583 25426 ft 449 kts 337°
2026-04-14 00:29 -8.02338 12.90393 25770 ft 451 kts 337°
2026-04-14 00:29 -7.99427 12.89180 26117 ft 452 kts 337°
2026-04-14 00:29 -7.96504 12.87963 26435 ft 455 kts 337°
2026-04-14 00:29 -7.93561 12.86737 26756 ft 457 kts 337°
2026-04-14 00:30 -7.90646 12.85523 27076 ft 459 kts 337°
2026-04-14 00:30 -7.87680 12.84288 27384 ft 461 kts 337°
2026-04-14 00:30 -7.84699 12.83046 27691 ft 463 kts 337°
2026-04-14 00:30 -7.81704 12.81799 27982 ft 466 kts 337°
2026-04-14 00:31 -7.78700 12.80549 28286 ft 467 kts 337°
2026-04-14 00:31 -7.75718 12.79308 28572 ft 469 kts 337°
2026-04-14 00:31 -7.72671 12.78040 28852 ft 472 kts 337°
2026-04-14 00:31 -7.69620 12.76771 29127 ft 474 kts 337°
2026-04-14 00:32 -7.63531 12.74238 29658 ft 478 kts 336°
2026-04-14 00:32 -7.60447 12.72956 29912 ft 480 kts 337°
2026-04-14 00:32 -7.57354 12.71670 30141 ft 481 kts 336°
2026-04-14 00:33 -7.54243 12.70376 30379 ft 483 kts 336°
2026-04-14 00:33 -7.51162 12.69096 30599 ft 484 kts 336°
2026-04-14 00:33 -7.48044 12.67800 30829 ft 485 kts 336°
2026-04-14 00:33 -7.44908 12.66497 31062 ft 487 kts 336°
2026-04-14 00:34 -7.41768 12.65193 31262 ft 488 kts 337°
2026-04-14 00:34 -7.38614 12.63882 31511 ft 488 kts 338°
2026-04-14 00:34 -7.35512 12.62594 31814 ft 487 kts 338°
2026-04-14 00:34 -7.32377 12.61293 32130 ft 486 kts 338°
2026-04-14 00:35 -7.29242 12.59991 32432 ft 484 kts 338°
2026-04-14 00:35 -7.26161 12.58712 32741 ft 483 kts 338°
2026-04-14 00:35 -7.23042 12.57418 33015 ft 482 kts 338°
2026-04-14 00:35 -7.19938 12.56129 33285 ft 482 kts 338°
2026-04-14 00:36 -7.16839 12.54844 33577 ft 480 kts 338°
2026-04-14 00:36 -7.13740 12.53558 33850 ft 480 kts 338°
2026-04-14 00:36 -7.10694 12.52294 34072 ft 479 kts 338°
2026-04-14 00:36 -7.07605 12.51013 34293 ft 479 kts 338°
2026-04-14 00:37 -7.04524 12.49735 34533 ft 477 kts 337°
2026-04-14 00:37 -7.01440 12.48457 34723 ft 478 kts 337°
2026-04-14 00:37 -6.97366 12.46769 34969 ft 477 kts 338°
2026-04-14 00:37 -6.95322 12.45923 35126 ft 476 kts 337°
2026-04-14 00:38 -6.92258 12.44653 35370 ft 475 kts 337°
2026-04-14 00:38 -6.89199 12.43383 35581 ft 474 kts 337°
2026-04-14 00:38 -6.86145 12.42114 35770 ft 474 kts 337°
2026-04-14 00:38 -6.83127 12.40861 35871 ft 476 kts 337°
2026-04-14 00:39 -6.80067 12.39591 35882 ft 475 kts 338°
2026-04-14 00:39 -6.73985 12.37069 35882 ft 470 kts 338°
2026-04-14 00:40 -6.67940 12.34563 35884 ft 469 kts 338°
2026-04-14 00:40 -6.61884 12.32055 35875 ft 471 kts 338°
2026-04-14 00:41 -6.55841 12.29551 35875 ft 471 kts 338°
2026-04-14 00:41 -6.49760 12.27033 35875 ft 471 kts 338°
2026-04-14 00:42 -6.43723 12.24533 35876 ft 471 kts 338°
2026-04-14 00:42 -6.37631 12.22012 35875 ft 471 kts 338°
2026-04-14 00:43 -6.31563 12.19501 35882 ft 471 kts 337°
2026-04-14 00:43 -6.25525 12.17003 35876 ft 472 kts 337°
2026-04-14 00:44 -6.19418 12.14476 35873 ft 473 kts 337°
2026-04-14 00:44 -6.13355 12.11970 35873 ft 473 kts 337°
2026-04-14 00:45 -6.07257 12.09448 35871 ft 473 kts 337°
2026-04-14 00:45 -6.01205 12.06947 35873 ft 473 kts 337°
2026-04-14 00:46 -5.95120 12.04433 35875 ft 473 kts 337°
2026-04-14 00:46 -5.89020 12.01913 35873 ft 473 kts 337°
2026-04-14 00:47 -5.82953 11.99407 35873 ft 473 kts 337°
2026-04-14 00:47 -5.76851 11.96888 35873 ft 473 kts 337°
2026-04-14 00:48 -5.70753 11.94370 35872 ft 473 kts 337°
2026-04-14 00:48 -5.64689 11.91868 35875 ft 473 kts 337°
2026-04-14 00:49 -5.58586 11.89350 35875 ft 473 kts 337°
2026-04-14 00:49 -5.52537 11.86854 35873 ft 472 kts 337°
2026-04-14 00:50 -5.46439 11.84339 35873 ft 472 kts 337°
2026-04-14 00:50 -5.40395 11.81847 35872 ft 472 kts 337°
2026-04-14 00:51 -5.34295 11.79332 35876 ft 472 kts 337°
2026-04-14 00:51 -5.28241 11.76837 35875 ft 472 kts 337°
2026-04-14 00:52 -5.22151 11.74327 35876 ft 472 kts 337°
2026-04-14 00:52 -5.16118 11.71841 35876 ft 470 kts 338°
2026-04-14 00:53 -5.09822 11.70195 35878 ft 468 kts 353°
2026-04-14 00:53 -5.03321 11.69588 35878 ft 468 kts 356°
2026-04-14 00:54 -4.96852 11.69166 35880 ft 468 kts 356°
2026-04-14 00:54 -4.90325 11.68753 35883 ft 469 kts 356°
2026-04-14 00:55 -4.83847 11.68322 35884 ft 469 kts 356°
2026-04-14 00:55 -4.77318 11.67874 35881 ft 470 kts 356°
2026-04-14 00:56 -4.70773 11.67423 35881 ft 470 kts 357°
2026-04-14 00:56 -4.64275 11.66976 35880 ft 471 kts 357°
2026-04-14 00:57 -4.57716 11.66525 35878 ft 471 kts 357°
2026-04-14 00:57 -4.51198 11.66078 35879 ft 471 kts 357°
2026-04-14 00:58 -4.44642 11.65628 35880 ft 471 kts 356°
2026-04-14 00:58 -4.38115 11.65180 35878 ft 472 kts 357°
2026-04-14 00:59 -4.31583 11.64732 35881 ft 472 kts 356°
2026-04-14 00:59 -4.25013 11.64279 35881 ft 472 kts 357°
2026-04-14 01:00 -4.18442 11.63830 35883 ft 472 kts 357°
2026-04-14 01:00 -4.11912 11.63385 35884 ft 472 kts 356°
2026-04-14 01:01 -4.05331 11.62934 35883 ft 472 kts 357°
2026-04-14 01:01 -3.98795 11.62487 35884 ft 472 kts 357°
2026-04-14 01:02 -3.92225 11.62037 35884 ft 472 kts 357°
2026-04-14 01:02 -3.85688 11.61590 35884 ft 472 kts 357°
2026-04-14 01:03 -3.79144 11.61142 35883 ft 472 kts 356°
2026-04-14 01:03 -3.72560 11.60692 35888 ft 472 kts 356°
2026-04-14 01:04 -3.66026 11.60176 35882 ft 473 kts 352°
2026-04-14 01:04 -3.60646 11.59082 35884 ft 473 kts 347°
2026-04-14 01:05 -3.53180 11.57294 35888 ft 473 kts 346°
2026-04-14 01:05 -3.46769 11.55710 35886 ft 473 kts 346°
2026-04-14 01:06 -3.40392 11.54144 35888 ft 473 kts 347°
2026-04-14 01:06 -3.33969 11.52577 35890 ft 473 kts 347°
2026-04-14 01:07 -3.27620 11.51033 35890 ft 471 kts 347°
2026-04-14 01:07 -3.22318 11.49743 35889 ft 471 kts 347°
2026-04-14 01:08 -3.14907 11.47941 35889 ft 471 kts 347°
2026-04-14 01:08 -3.09606 11.46651 35887 ft 471 kts 347°
2026-04-14 01:09 -3.03216 11.45097 35889 ft 471 kts 347°
2026-04-14 01:09 -2.96873 11.43554 35889 ft 471 kts 347°
2026-04-14 01:10 -2.90485 11.42000 35887 ft 472 kts 347°
2026-04-14 01:10 -2.84089 11.40445 35886 ft 473 kts 347°
2026-04-14 01:11 -2.77686 11.38889 35887 ft 473 kts 347°
2026-04-14 01:11 -2.71306 11.37337 35887 ft 473 kts 347°
2026-04-14 01:12 -2.64906 11.35782 35886 ft 473 kts 347°
2026-04-14 01:12 -2.58545 11.34235 35887 ft 473 kts 347°
2026-04-14 01:13 -2.52130 11.32677 35885 ft 473 kts 347°
2026-04-14 01:13 -2.45763 11.31130 35883 ft 473 kts 347°
2026-04-14 01:14 -2.39356 11.29573 35883 ft 473 kts 347°
2026-04-14 01:14 -2.32941 11.28014 35883 ft 474 kts 347°
2026-04-14 01:15 -2.26550 11.26461 35882 ft 474 kts 347°
2026-04-14 01:15 -2.20130 11.24902 35884 ft 474 kts 347°
2026-04-14 01:16 -2.13728 11.23347 35884 ft 474 kts 347°
2026-04-14 01:16 -2.07291 11.21784 35884 ft 474 kts 347°
2026-04-14 01:18 -1.81657 11.15559 35889 ft 474 kts 347°
2026-04-14 01:19 -1.75287 11.14013 35896 ft 473 kts 347°
2026-04-14 01:19 -1.68875 11.12456 35895 ft 473 kts 347°
2026-04-14 01:20 -1.62487 11.10906 35896 ft 473 kts 347°
2026-04-14 01:20 -1.56069 11.09348 35898 ft 473 kts 347°
2026-04-14 01:21 -1.49660 11.07792 35903 ft 473 kts 347°
2026-04-14 01:21 -1.43293 11.06247 35901 ft 473 kts 347°
2026-04-14 01:22 -1.36900 11.04696 35900 ft 473 kts 347°
2026-04-14 01:22 -1.30488 11.03140 35903 ft 473 kts 347°
2026-04-14 01:23 -1.24121 11.01595 35903 ft 473 kts 347°
2026-04-14 01:23 -1.17703 11.00038 35895 ft 473 kts 347°
2026-04-14 01:24 -1.11336 10.98493 35895 ft 473 kts 347°
2026-04-14 01:24 -1.04929 10.96939 35890 ft 472 kts 346°
2026-04-14 01:25 -0.98577 10.95398 35893 ft 473 kts 346°
2026-04-14 01:25 -0.92177 10.93845 35893 ft 472 kts 346°
2026-04-14 01:26 -0.85779 10.92293 35893 ft 472 kts 346°
2026-04-14 01:26 -0.79402 10.90746 35896 ft 473 kts 346°
2026-04-14 01:27 -0.72997 10.89192 35897 ft 472 kts 347°
2026-04-14 01:27 -0.66652 10.87653 35896 ft 470 kts 347°
2026-04-14 01:28 -0.60282 10.86106 35886 ft 470 kts 347°
2026-04-14 01:28 -0.53944 10.84567 35887 ft 470 kts 347°
2026-04-14 01:29 -0.47575 10.83021 35886 ft 470 kts 347°
2026-04-14 01:29 -0.41226 10.81479 35884 ft 470 kts 347°
2026-04-14 01:30 -0.34854 10.79933 35884 ft 470 kts 347°
2026-04-14 01:30 -0.28524 10.78396 35885 ft 470 kts 347°
2026-04-14 01:31 -0.22161 10.76852 35883 ft 470 kts 347°
2026-04-14 01:31 -0.15794 10.75306 35883 ft 470 kts 347°
2026-04-14 01:32 -0.09457 10.73768 35882 ft 470 kts 347°
2026-04-14 01:32 -0.03073 10.72219 35880 ft 470 kts 347°
2026-04-14 01:33 0.03266 10.70682 35875 ft 472 kts 347°
2026-04-14 01:33 0.09672 10.69123 35879 ft 473 kts 347°
2026-04-14 01:34 0.16051 10.67570 35880 ft 473 kts 347°
2026-04-14 01:34 0.22467 10.66010 35881 ft 473 kts 347°
2026-04-14 01:35 0.28835 10.64463 35883 ft 473 kts 347°
2026-04-14 01:35 0.35248 10.62904 35897 ft 473 kts 347°
2026-04-14 01:36 0.41648 10.61349 35889 ft 473 kts 347°
2026-04-14 01:36 0.48031 10.59798 35894 ft 474 kts 347°
2026-04-14 01:37 0.54445 10.58236 35895 ft 474 kts 347°
2026-04-14 01:37 0.60818 10.56689 35905 ft 474 kts 347°
2026-04-14 01:38 0.70451 10.54352 35897 ft 475 kts 347°
2026-04-14 01:38 0.76886 10.52789 35908 ft 475 kts 347°
2026-04-14 01:39 0.83293 10.51232 35901 ft 476 kts 347°
2026-04-14 01:39 0.89755 10.49664 35904 ft 476 kts 347°
2026-04-14 01:40 0.96208 10.48100 35908 ft 476 kts 347°
2026-04-14 01:40 1.02618 10.46543 35904 ft 476 kts 347°
2026-04-14 01:41 1.09070 10.44976 35908 ft 476 kts 347°
2026-04-14 01:41 1.15483 10.43419 35904 ft 476 kts 347°
2026-04-14 01:42 1.21939 10.41852 35910 ft 476 kts 347°
2026-04-14 01:42 1.28386 10.40287 35906 ft 476 kts 347°
2026-04-14 01:43 1.34791 10.38733 35907 ft 476 kts 347°
2026-04-14 01:43 1.41232 10.37169 35911 ft 476 kts 347°
2026-04-14 01:44 1.47673 10.35606 35911 ft 476 kts 347°
2026-04-14 01:44 1.54078 10.34050 35906 ft 475 kts 347°
2026-04-14 01:45 1.60516 10.32487 35909 ft 475 kts 347°
2026-04-14 01:45 1.66910 10.30934 35902 ft 475 kts 347°
2026-04-14 01:46 1.73347 10.29372 35903 ft 475 kts 347°
2026-04-14 01:46 1.79743 10.27819 35903 ft 475 kts 347°
2026-04-14 01:47 1.86181 10.26259 35889 ft 475 kts 347°
2026-04-14 01:47 1.92621 10.24691 35889 ft 475 kts 347°
2026-04-14 01:48 1.99016 10.23135 35885 ft 475 kts 347°
2026-04-14 01:48 2.05450 10.21570 35887 ft 475 kts 347°
2026-04-14 01:49 2.11838 10.20017 35883 ft 475 kts 347°
2026-04-14 01:49 2.18272 10.18453 35885 ft 475 kts 347°
2026-04-14 01:50 2.24680 10.16896 35883 ft 475 kts 347°
2026-04-14 01:50 2.31111 10.15332 35881 ft 476 kts 347°
2026-04-14 01:51 2.37561 10.13764 35881 ft 476 kts 347°
2026-04-14 01:51 2.43962 10.12207 35867 ft 476 kts 347°
2026-04-14 01:52 2.50413 10.10638 35867 ft 476 kts 347°
2026-04-14 01:52 2.56820 10.09079 35868 ft 476 kts 347°
2026-04-14 01:53 2.63262 10.07512 35870 ft 476 kts 347°
2026-04-14 01:53 2.69702 10.05945 35867 ft 476 kts 347°
2026-04-14 01:54 2.76107 10.04387 35863 ft 475 kts 347°
2026-04-14 01:54 2.82550 10.02819 35862 ft 475 kts 347°
2026-04-14 01:55 2.87897 10.01517 35860 ft 475 kts 347°
2026-04-14 01:55 2.95398 9.99691 35859 ft 476 kts 347°
2026-04-14 01:56 3.00761 9.98386 35862 ft 476 kts 347°
2026-04-14 01:56 3.07195 9.96819 35857 ft 475 kts 347°
2026-04-14 01:57 3.13581 9.95264 35857 ft 474 kts 347°
2026-04-14 01:57 3.20017 9.93697 35856 ft 474 kts 347°
2026-04-14 01:58 3.26400 9.92143 35856 ft 474 kts 347°
2026-04-14 01:58 3.32825 9.90578 35856 ft 474 kts 347°
2026-04-14 01:59 3.39260 9.89010 35856 ft 474 kts 347°
2026-04-14 01:59 3.45651 9.87453 35857 ft 474 kts 347°
2026-04-14 02:00 3.52074 9.85888 35858 ft 474 kts 347°
2026-04-14 02:00 3.58463 9.84331 35859 ft 474 kts 347°
2026-04-14 02:01 3.64897 9.82762 35857 ft 475 kts 347°
2026-04-14 02:01 3.71329 9.81194 35856 ft 477 kts 347°
2026-04-14 02:02 3.77798 9.79617 35860 ft 478 kts 347°
2026-04-14 02:02 3.84242 9.78046 35857 ft 479 kts 347°
2026-04-14 02:03 3.90740 9.76461 35856 ft 480 kts 347°
2026-04-14 02:03 3.97201 9.74885 35857 ft 479 kts 347°
2026-04-14 02:04 4.03592 9.72867 35857 ft 480 kts 342°
2026-04-14 02:04 4.09878 9.70669 35858 ft 480 kts 341°
2026-04-14 02:05 4.16192 9.68423 35856 ft 481 kts 341°
2026-04-14 02:05 4.22507 9.66179 35862 ft 481 kts 341°
2026-04-14 02:06 4.28841 9.63935 35861 ft 481 kts 341°
2026-04-14 02:06 4.35115 9.61716 35861 ft 481 kts 341°
2026-04-14 02:07 4.41452 9.59474 35866 ft 481 kts 341°
2026-04-14 02:07 4.47743 9.57263 35862 ft 481 kts 343°
2026-04-14 02:08 4.54246 9.55643 35875 ft 480 kts 348°
2026-04-14 02:08 4.60790 9.54206 35875 ft 480 kts 348°
2026-04-14 02:09 4.67301 9.52811 35887 ft 480 kts 348°
2026-04-14 02:09 4.73815 9.51410 35885 ft 480 kts 348°
2026-04-14 02:10 4.80368 9.49991 35890 ft 480 kts 348°
2026-04-14 02:10 4.86871 9.48580 35895 ft 480 kts 348°
2026-04-14 02:11 4.93436 9.47155 35898 ft 481 kts 348°
2026-04-14 02:11 4.99940 9.45744 35904 ft 481 kts 348°
2026-04-14 02:12 5.06521 9.44315 35899 ft 482 kts 348°
2026-04-14 02:12 5.13042 9.42900 35897 ft 482 kts 348°
2026-04-14 02:13 5.19603 9.41475 35901 ft 482 kts 348°
2026-04-14 02:13 5.26170 9.40048 35884 ft 482 kts 348°
2026-04-14 02:14 5.32689 9.38632 35874 ft 481 kts 348°
2026-04-14 02:14 5.39246 9.37207 35880 ft 481 kts 348°
2026-04-14 02:15 5.45769 9.35790 35867 ft 481 kts 348°
2026-04-14 02:15 5.52328 9.34365 35870 ft 481 kts 348°
2026-04-14 02:16 5.58842 9.32948 35866 ft 481 kts 348°
2026-04-14 02:16 5.65402 9.31521 35865 ft 481 kts 348°
2026-04-14 02:17 5.71972 9.30277 35871 ft 479 kts 353°
2026-04-14 02:17 5.78580 9.29443 35867 ft 479 kts 354°
2026-04-14 02:18 5.85219 9.28677 35867 ft 479 kts 354°
2026-04-14 02:18 5.91822 9.27923 35870 ft 479 kts 354°
2026-04-14 02:19 5.98426 9.27161 35872 ft 479 kts 354°
2026-04-14 02:19 6.05091 9.26387 35879 ft 478 kts 354°
2026-04-14 02:20 6.11685 9.25619 35878 ft 477 kts 354°
2026-04-14 02:20 6.18260 9.24859 35884 ft 477 kts 354°
2026-04-14 02:21 6.24893 9.24354 35878 ft 477 kts 357°
2026-04-14 02:21 6.31540 9.23992 35879 ft 477 kts 358°
2026-04-14 02:22 6.38146 9.23603 35872 ft 477 kts 357°
2026-04-14 02:22 6.44788 9.23176 35874 ft 477 kts 357°
2026-04-14 02:23 6.51388 9.22740 35865 ft 477 kts 357°
2026-04-14 02:23 6.58038 9.22298 35867 ft 477 kts 356°
2026-04-14 02:24 6.64642 9.21863 35862 ft 477 kts 356°
2026-04-14 02:24 6.71272 9.21426 35864 ft 477 kts 356°
2026-04-14 02:25 6.77906 9.20988 35856 ft 478 kts 357°
2026-04-14 02:25 6.84525 9.20552 35849 ft 479 kts 357°
2026-04-14 02:26 6.91192 9.20112 35853 ft 479 kts 357°
2026-04-14 02:26 6.97862 9.19671 35849 ft 479 kts 357°
2026-04-14 02:27 7.04487 9.19234 35853 ft 479 kts 357°
2026-04-14 02:27 7.11149 9.18768 35849 ft 479 kts 355°
2026-04-14 02:28 7.17739 9.17907 35846 ft 479 kts 352°
2026-04-14 02:28 7.24355 9.16904 35843 ft 480 kts 352°
2026-04-14 02:29 7.30938 9.15955 35848 ft 480 kts 353°
2026-04-14 02:29 7.37559 9.15045 35844 ft 479 kts 353°
2026-04-14 02:30 7.44179 9.14149 35842 ft 479 kts 353°
2026-04-14 02:30 7.50808 9.13252 35846 ft 480 kts 353°
2026-04-14 02:31 7.57399 9.12357 35848 ft 481 kts 352°
2026-04-14 02:31 7.64040 9.11454 35845 ft 480 kts 353°
2026-04-14 02:32 7.70637 9.10557 35837 ft 480 kts 352°
2026-04-14 02:32 7.77279 9.09654 35842 ft 481 kts 352°
2026-04-14 02:33 7.83924 9.08750 35844 ft 481 kts 352°
2026-04-14 02:34 7.93887 9.07394 35846 ft 484 kts 352°
2026-04-14 02:34 8.00541 9.06488 35834 ft 483 kts 352°
2026-04-14 02:35 8.07203 9.05580 35839 ft 474 kts 352°
2026-04-14 02:35 8.13660 9.04727 35845 ft 469 kts 353°
2026-04-14 02:36 8.20142 9.03958 35844 ft 468 kts 353°
2026-04-14 02:36 8.26628 9.03199 35845 ft 468 kts 353°
2026-04-14 02:37 8.33064 9.02434 35831 ft 468 kts 353°
2026-04-14 02:37 8.39548 9.01641 35835 ft 468 kts 352°
2026-04-14 02:38 8.45992 9.00829 35841 ft 467 kts 352°
2026-04-14 02:38 8.52421 8.99922 35839 ft 467 kts 351°
2026-04-14 02:39 8.58869 8.98998 35845 ft 468 kts 351°
2026-04-14 02:39 8.65321 8.98089 35841 ft 466 kts 351°
2026-04-14 02:40 8.71708 8.97198 35842 ft 465 kts 351°
2026-04-14 02:40 8.78134 8.96304 35853 ft 465 kts 351°
2026-04-14 02:41 8.84545 8.95411 35865 ft 465 kts 351°
2026-04-14 02:41 8.90924 8.94521 35868 ft 465 kts 351°
2026-04-14 02:42 8.96261 8.93777 35866 ft 465 kts 351°
2026-04-14 02:42 9.03720 8.92737 35882 ft 464 kts 351°
2026-04-14 02:43 9.09077 8.91989 35884 ft 464 kts 351°
2026-04-14 02:43 9.15441 8.91100 35903 ft 464 kts 351°
2026-04-14 02:44 9.21861 8.90203 35903 ft 464 kts 351°
2026-04-14 02:44 9.28265 8.89308 35920 ft 464 kts 351°
2026-04-14 02:45 9.34631 8.88418 35926 ft 464 kts 351°
2026-04-14 02:45 9.41031 8.87523 35922 ft 463 kts 350°
2026-04-14 02:46 9.47374 8.86636 35927 ft 462 kts 350°
2026-04-14 02:46 9.53754 8.85743 35925 ft 462 kts 350°
2026-04-14 02:47 9.60140 8.84849 35922 ft 462 kts 350°
2026-04-14 02:47 9.66484 8.83972 35925 ft 462 kts 351°
2026-04-14 02:48 9.72895 8.83235 35917 ft 463 kts 352°
2026-04-14 02:48 9.79271 8.82549 35912 ft 461 kts 352°
2026-04-14 02:49 9.85660 8.81842 35915 ft 461 kts 352°
2026-04-14 02:49 9.92010 8.81124 35904 ft 461 kts 352°
2026-04-14 02:50 9.98394 8.80397 35902 ft 461 kts 352°
2026-04-14 02:50 10.04782 8.79670 35900 ft 461 kts 352°
2026-04-14 02:51 10.11126 8.78948 35892 ft 461 kts 351°
2026-04-14 02:51 10.17471 8.78226 35882 ft 460 kts 351°
2026-04-14 02:52 10.23853 8.77500 35883 ft 460 kts 351°
2026-04-14 02:52 10.30219 8.76775 35882 ft 460 kts 351°
2026-04-14 02:53 10.36559 8.76052 35876 ft 460 kts 351°
2026-04-14 02:53 10.42889 8.75331 35882 ft 460 kts 351°
2026-04-14 02:54 10.49266 8.74604 35875 ft 459 kts 351°
2026-04-14 02:54 10.55581 8.73884 35871 ft 458 kts 351°
2026-04-14 02:55 10.61930 8.73159 35862 ft 458 kts 351°
2026-04-14 02:55 10.68268 8.72435 35866 ft 458 kts 351°
2026-04-14 02:56 10.74571 8.71715 35859 ft 458 kts 351°
2026-04-14 02:56 10.80935 8.70988 35851 ft 459 kts 351°
2026-04-14 02:57 10.87275 8.70263 35854 ft 460 kts 351°
2026-04-14 02:57 10.93595 8.69411 35841 ft 458 kts 347°
2026-04-14 02:58 10.99868 8.68233 35839 ft 458 kts 346°
2026-04-14 02:58 11.06144 8.67034 35844 ft 458 kts 347°
2026-04-14 02:59 11.12400 8.65890 35844 ft 458 kts 347°
2026-04-14 02:59 11.18696 8.64767 35832 ft 458 kts 347°
2026-04-14 03:00 11.24933 8.63660 35835 ft 456 kts 347°
2026-04-14 03:00 11.31199 8.62546 35839 ft 455 kts 347°
2026-04-14 03:01 11.37451 8.61431 35830 ft 455 kts 347°
2026-04-14 03:01 11.43657 8.60324 35827 ft 456 kts 347°
2026-04-14 03:02 11.49921 8.59206 35821 ft 456 kts 347°
2026-04-14 03:02 11.56144 8.58095 35821 ft 456 kts 347°
2026-04-14 03:03 11.62376 8.56982 35810 ft 455 kts 347°
2026-04-14 03:03 11.68636 8.55863 35812 ft 455 kts 347°
2026-04-14 03:04 11.74848 8.54752 35813 ft 455 kts 347°
2026-04-14 03:04 11.81101 8.53634 35813 ft 455 kts 347°
2026-04-14 03:05 11.87348 8.52516 35809 ft 455 kts 347°
2026-04-14 03:05 11.93563 8.51404 35808 ft 455 kts 346°
2026-04-14 03:06 11.99789 8.50288 35804 ft 456 kts 346°
2026-04-14 03:06 12.06069 8.49204 35807 ft 457 kts 349°
2026-04-14 03:07 12.12415 8.48563 35807 ft 459 kts 352°
2026-04-14 03:07 12.18751 8.48053 35807 ft 458 kts 352°
2026-04-14 03:08 12.25084 8.47487 35802 ft 458 kts 351°
2026-04-14 03:08 12.31441 8.46871 35805 ft 458 kts 351°
2026-04-14 03:09 12.37765 8.46243 35799 ft 458 kts 351°
2026-04-14 03:09 12.44126 8.45612 35800 ft 458 kts 351°
2026-04-14 03:10 12.50482 8.44983 35797 ft 458 kts 351°
2026-04-14 03:10 12.56806 8.44358 35794 ft 458 kts 351°
2026-04-14 03:11 12.63132 8.43733 35795 ft 458 kts 351°
2026-04-14 03:11 12.69493 8.43104 35797 ft 457 kts 351°
2026-04-14 03:12 12.75846 8.42476 35798 ft 457 kts 351°
2026-04-14 03:12 12.82154 8.41854 35797 ft 457 kts 351°
2026-04-14 03:13 12.88493 8.41225 35792 ft 457 kts 351°
2026-04-14 03:13 12.94783 8.40598 35790 ft 457 kts 351°
2026-04-14 03:14 13.01125 8.39967 35796 ft 457 kts 350°
2026-04-14 03:14 13.07463 8.39337 35785 ft 457 kts 350°
2026-04-14 03:15 13.13818 8.38726 35785 ft 457 kts 351°
2026-04-14 03:15 13.20142 8.38142 35785 ft 457 kts 351°
2026-04-14 03:16 13.26446 8.37559 35780 ft 457 kts 351°
2026-04-14 03:16 13.32802 8.36967 35781 ft 457 kts 351°
2026-04-14 03:17 13.39160 8.36373 35782 ft 457 kts 350°
2026-04-14 03:17 13.48610 8.35489 35779 ft 456 kts 350°
2026-04-14 03:18 13.54943 8.34896 35776 ft 456 kts 350°
2026-04-14 03:18 13.61235 8.34307 35776 ft 456 kts 350°
2026-04-14 03:19 13.67552 8.33715 35773 ft 456 kts 350°
2026-04-14 03:19 13.73895 8.33121 35775 ft 456 kts 349°
2026-04-14 03:20 13.80209 8.32527 35771 ft 458 kts 349°
2026-04-14 03:20 13.86572 8.31928 35773 ft 458 kts 349°
2026-04-14 03:21 13.92891 8.31334 35767 ft 458 kts 349°
2026-04-14 03:21 13.99247 8.30735 35769 ft 458 kts 349°
2026-04-14 03:22 14.05575 8.30139 35770 ft 458 kts 349°
2026-04-14 03:22 14.11944 8.29539 35772 ft 458 kts 349°
2026-04-14 03:23 14.18267 8.28943 35770 ft 458 kts 349°
2026-04-14 03:23 14.24633 8.28342 35773 ft 457 kts 349°
2026-04-14 03:24 14.30952 8.27745 35772 ft 458 kts 349°
2026-04-14 03:24 14.37309 8.27144 35774 ft 458 kts 349°
2026-04-14 03:25 14.43610 8.26548 35773 ft 457 kts 349°
2026-04-14 03:25 14.49969 8.25947 35774 ft 457 kts 349°
2026-04-14 03:26 14.56298 8.25348 35780 ft 457 kts 349°
2026-04-14 03:26 14.62656 8.24746 35780 ft 457 kts 349°
2026-04-14 03:27 14.68965 8.24148 35780 ft 457 kts 349°
2026-04-14 03:27 14.75324 8.23545 35778 ft 457 kts 349°
2026-04-14 03:28 14.81627 8.22947 35781 ft 457 kts 349°
2026-04-14 03:28 14.87976 8.22345 35781 ft 457 kts 349°
2026-04-14 03:29 14.94278 8.21746 35783 ft 456 kts 349°
2026-04-14 03:29 15.00621 8.21143 35785 ft 456 kts 349°
2026-04-14 03:30 15.06952 8.20541 35783 ft 457 kts 349°
2026-04-14 03:30 15.13267 8.19943 35783 ft 457 kts 349°
2026-04-14 03:31 15.18544 8.19442 35790 ft 458 kts 348°
2026-04-14 03:31 15.24921 8.18836 35790 ft 459 kts 348°
2026-04-14 03:32 15.31270 8.18234 35787 ft 459 kts 348°
2026-04-14 03:32 15.37647 8.17629 35780 ft 459 kts 348°
2026-04-14 03:33 15.43988 8.17027 35781 ft 459 kts 348°
2026-04-14 03:33 15.50377 8.16420 35794 ft 459 kts 348°
2026-04-14 03:34 15.59928 8.15511 35784 ft 460 kts 348°
2026-04-14 03:35 15.66288 8.14905 35788 ft 460 kts 348°
2026-04-14 03:35 15.72666 8.14297 35789 ft 460 kts 348°
2026-04-14 03:36 15.79063 8.13688 35792 ft 460 kts 348°
2026-04-14 03:36 15.85423 8.13081 35788 ft 460 kts 348°
2026-04-14 03:37 15.91820 8.12470 35788 ft 461 kts 348°
2026-04-14 03:37 15.98192 8.11861 35795 ft 461 kts 348°
2026-04-14 03:38 16.04602 8.11248 35789 ft 461 kts 348°
2026-04-14 03:38 16.10966 8.10640 35781 ft 461 kts 348°
2026-04-14 03:39 16.17386 8.10025 35789 ft 461 kts 348°
2026-04-14 03:39 16.23762 8.09415 35784 ft 462 kts 347°
2026-04-14 03:40 16.30200 8.08797 35786 ft 463 kts 347°
2026-04-14 03:40 16.36586 8.08185 35784 ft 463 kts 347°
2026-04-14 03:41 16.43034 8.07566 35784 ft 463 kts 347°
2026-04-14 03:41 16.49430 8.06952 35781 ft 463 kts 347°
2026-04-14 03:42 16.55823 8.06339 35792 ft 463 kts 347°
2026-04-14 03:42 16.62256 8.05721 35785 ft 462 kts 347°
2026-04-14 03:43 16.68632 8.05108 35786 ft 462 kts 347°
2026-04-14 03:43 16.75046 8.04489 35785 ft 462 kts 347°
2026-04-14 03:44 16.81456 8.03871 35782 ft 462 kts 347°
2026-04-14 03:44 16.87827 8.03257 35782 ft 462 kts 347°
2026-04-14 03:45 16.94252 8.02638 35785 ft 461 kts 347°
2026-04-14 03:45 17.00612 8.02038 35785 ft 461 kts 347°
2026-04-14 03:46 17.07041 8.01524 35785 ft 462 kts 348°
2026-04-14 03:46 17.13427 8.01033 35786 ft 462 kts 348°
2026-04-14 03:47 17.19842 8.00528 35784 ft 462 kts 347°
2026-04-14 03:47 17.26264 8.00012 35787 ft 461 kts 347°
2026-04-14 03:48 17.32636 7.99498 35783 ft 461 kts 347°
2026-04-14 03:48 17.39038 7.98981 35782 ft 460 kts 347°
2026-04-14 03:49 17.45397 7.98467 35781 ft 461 kts 347°
2026-04-14 03:49 17.51802 7.97949 35781 ft 460 kts 347°
2026-04-14 03:50 17.58188 7.97433 35780 ft 460 kts 347°
2026-04-14 03:50 17.64568 7.96917 35777 ft 461 kts 347°
2026-04-14 03:51 17.70975 7.96398 35780 ft 462 kts 347°
2026-04-14 03:51 17.77390 7.95879 35780 ft 461 kts 347°
2026-04-14 03:52 17.83756 7.95363 35780 ft 461 kts 347°
2026-04-14 03:52 17.90181 7.94842 35781 ft 461 kts 347°
2026-04-14 03:53 17.96561 7.94324 35783 ft 461 kts 347°
2026-04-14 03:53 18.02979 7.93803 35782 ft 461 kts 347°
2026-04-14 03:54 18.09384 7.93282 35786 ft 461 kts 347°
2026-04-14 03:54 18.15757 7.92763 35784 ft 461 kts 347°
2026-04-14 03:55 18.22168 7.92242 35785 ft 461 kts 347°
2026-04-14 03:55 18.28576 7.91719 35795 ft 461 kts 346°
2026-04-14 03:56 18.34953 7.91199 35787 ft 462 kts 346°
2026-04-14 03:56 18.41381 7.90674 35790 ft 462 kts 346°
2026-04-14 03:57 18.47800 7.90151 35791 ft 462 kts 346°
2026-04-14 03:57 18.54187 7.89629 35790 ft 462 kts 346°
2026-04-14 03:58 18.60610 7.89103 35786 ft 462 kts 346°
2026-04-14 03:58 18.67002 7.88580 35785 ft 462 kts 346°
2026-04-14 03:59 18.73443 7.88052 35788 ft 463 kts 346°
2026-04-14 03:59 18.79826 7.87530 35787 ft 462 kts 346°
2026-04-14 04:00 18.86248 7.87004 35789 ft 462 kts 346°
2026-04-14 04:00 18.92638 7.86480 35791 ft 462 kts 346°
2026-04-14 04:01 18.99065 7.85951 35794 ft 462 kts 345°
2026-04-14 04:01 19.05492 7.85422 35788 ft 462 kts 345°
2026-04-14 04:02 19.11878 7.84897 35788 ft 462 kts 345°
2026-04-14 04:02 19.18259 7.84371 35786 ft 462 kts 345°
2026-04-14 04:03 19.24686 7.83841 35794 ft 462 kts 345°
2026-04-14 04:03 19.31113 7.83312 35808 ft 462 kts 345°
2026-04-14 04:04 19.37492 7.82786 35796 ft 461 kts 345°
2026-04-14 04:04 19.43905 7.82255 35796 ft 461 kts 345°
2026-04-14 04:05 19.50279 7.81728 35796 ft 461 kts 345°
2026-04-14 04:05 19.56699 7.81210 35801 ft 462 kts 345°
2026-04-14 04:06 19.63074 7.80707 35830 ft 462 kts 345°
2026-04-14 04:06 19.69497 7.80202 35803 ft 460 kts 345°
2026-04-14 04:07 19.75849 7.79699 35803 ft 459 kts 345°
2026-04-14 04:07 19.82238 7.79189 35808 ft 459 kts 345°
2026-04-14 04:08 19.88584 7.78683 35810 ft 459 kts 345°
2026-04-14 04:08 19.94966 7.78173 35807 ft 460 kts 345°
2026-04-14 04:09 20.01353 7.77663 35808 ft 458 kts 344°
2026-04-14 04:09 20.07680 7.77160 35808 ft 458 kts 344°
2026-04-14 04:10 20.14046 7.76649 35807 ft 458 kts 344°
2026-04-14 04:10 20.20382 7.76141 35807 ft 458 kts 344°
2026-04-14 04:11 20.26750 7.75631 35810 ft 458 kts 344°
2026-04-14 04:11 20.33082 7.75123 35821 ft 457 kts 344°
2026-04-14 04:12 20.39432 7.74616 35807 ft 456 kts 344°
2026-04-14 04:12 20.45743 7.74108 35806 ft 456 kts 344°
2026-04-14 04:13 20.52046 7.73600 35805 ft 456 kts 344°
2026-04-14 04:13 20.58391 7.73089 35806 ft 456 kts 344°
2026-04-14 04:14 20.64737 7.72579 35832 ft 456 kts 343°
2026-04-14 04:14 20.71032 7.72075 35801 ft 454 kts 343°
2026-04-14 04:15 20.77344 7.71565 35799 ft 454 kts 343°
2026-04-14 04:15 20.83624 7.71057 35801 ft 454 kts 343°
2026-04-14 04:16 20.89944 7.70545 35802 ft 454 kts 343°
2026-04-14 04:16 20.96257 7.70034 35802 ft 454 kts 343°
2026-04-14 04:17 21.02459 7.69354 35800 ft 446 kts 340°
2026-04-14 04:17 21.08592 7.68426 35802 ft 443 kts 339°
2026-04-14 04:18 21.13694 7.67651 35801 ft 444 kts 339°
2026-04-14 04:18 21.19800 7.66766 35801 ft 445 kts 340°
2026-04-14 04:19 21.25946 7.65903 35801 ft 445 kts 340°
2026-04-14 04:19 21.32072 7.65048 35802 ft 445 kts 340°
2026-04-14 04:20 21.38225 7.64188 35804 ft 445 kts 340°
2026-04-14 04:20 21.44342 7.63330 35803 ft 445 kts 340°
2026-04-14 04:21 21.50496 7.62465 35804 ft 445 kts 340°
2026-04-14 04:21 21.56632 7.61602 35805 ft 445 kts 340°
2026-04-14 04:22 21.62782 7.60737 35836 ft 445 kts 339°
2026-04-14 04:22 21.68897 7.59875 35811 ft 446 kts 339°
2026-04-14 04:23 21.75070 7.59003 35815 ft 447 kts 339°
2026-04-14 04:23 21.81199 7.58141 35813 ft 445 kts 339°
2026-04-14 04:24 21.87338 7.57277 35812 ft 443 kts 339°
2026-04-14 04:24 21.93425 7.56415 35814 ft 443 kts 339°
2026-04-14 04:25 21.99547 7.55547 35814 ft 443 kts 339°
2026-04-14 04:25 22.05673 7.54681 35818 ft 442 kts 339°
2026-04-14 04:26 22.11751 7.53819 35814 ft 442 kts 339°
2026-04-14 04:26 22.17836 7.52956 35821 ft 442 kts 339°
2026-04-14 04:27 22.23951 7.52088 35820 ft 442 kts 339°
2026-04-14 04:27 22.30041 7.51222 35840 ft 442 kts 338°
2026-04-14 04:28 22.36166 7.50350 35829 ft 443 kts 338°
2026-04-14 04:28 22.42269 7.49482 35830 ft 443 kts 338°
2026-04-14 04:29 22.48388 7.48611 35837 ft 443 kts 338°
2026-04-14 04:29 22.54470 7.47744 35832 ft 443 kts 338°
2026-04-14 04:30 22.60579 7.46872 35837 ft 442 kts 338°
2026-04-14 04:30 22.66711 7.45996 35841 ft 443 kts 338°
2026-04-14 04:31 22.72798 7.45125 35837 ft 443 kts 338°
2026-04-14 04:31 22.81999 7.43809 35847 ft 443 kts 338°
2026-04-14 04:32 22.88085 7.42937 35847 ft 443 kts 338°
2026-04-14 04:32 22.94213 7.42058 35896 ft 443 kts 337°
2026-04-14 04:33 23.00303 7.41184 35851 ft 444 kts 337°
2026-04-14 04:33 23.06447 7.40302 35851 ft 444 kts 337°
2026-04-14 04:34 23.12539 7.39425 35853 ft 444 kts 337°
2026-04-14 04:34 23.18669 7.38543 35852 ft 444 kts 337°
2026-04-14 04:35 23.24803 7.37659 35852 ft 444 kts 337°
2026-04-14 04:35 23.30908 7.36778 35855 ft 444 kts 336°
2026-04-14 04:36 23.37052 7.35890 35858 ft 445 kts 336°
2026-04-14 04:36 23.43181 7.35005 35856 ft 445 kts 336°
2026-04-14 04:37 23.49328 7.34116 35862 ft 445 kts 336°
2026-04-14 04:37 23.55461 7.33305 35863 ft 448 kts 338°
2026-04-14 04:38 23.61727 7.32678 35869 ft 451 kts 339°
2026-04-14 04:38 23.67971 7.32067 35867 ft 453 kts 339°
2026-04-14 04:39 23.74270 7.31423 35867 ft 453 kts 338°
2026-04-14 04:39 23.80518 7.30766 35867 ft 453 kts 338°
2026-04-14 04:40 23.86806 7.30100 35870 ft 453 kts 338°
2026-04-14 04:41 23.96223 7.29097 35872 ft 454 kts 338°
2026-04-14 04:41 24.02513 7.28429 35870 ft 455 kts 338°
2026-04-14 04:42 24.08784 7.27764 35866 ft 455 kts 338°
2026-04-14 04:42 24.15094 7.27093 35875 ft 455 kts 338°
2026-04-14 04:43 24.21417 7.26421 35915 ft 455 kts 338°
2026-04-14 04:43 24.27701 7.25751 35877 ft 456 kts 338°
2026-04-14 04:44 24.34043 7.25073 35882 ft 457 kts 338°
2026-04-14 04:44 24.40378 7.24396 35881 ft 457 kts 338°
2026-04-14 04:45 24.46705 7.23721 35888 ft 458 kts 338°
2026-04-14 04:45 24.53059 7.23043 35886 ft 458 kts 338°
2026-04-14 04:46 24.59365 7.22368 35896 ft 458 kts 338°
2026-04-14 04:46 24.65722 7.21686 35898 ft 457 kts 338°
2026-04-14 04:47 24.72066 7.21006 35897 ft 457 kts 338°
2026-04-14 04:47 24.78366 7.20330 35897 ft 457 kts 338°
2026-04-14 04:48 24.84707 7.19648 35972 ft 458 kts 337°
2026-04-14 04:48 24.91021 7.18968 35901 ft 458 kts 337°
2026-04-14 04:49 24.97366 7.18286 35920 ft 458 kts 337°
2026-04-14 04:49 25.03700 7.17609 35921 ft 457 kts 337°
2026-04-14 04:50 25.10053 7.16923 35933 ft 457 kts 337°
2026-04-14 04:50 25.16371 7.16240 35988 ft 458 kts 337°
2026-04-14 04:51 25.22749 7.15547 35945 ft 461 kts 337°
2026-04-14 04:51 25.29159 7.14854 35944 ft 462 kts 338°
2026-04-14 04:52 25.35532 7.14170 35946 ft 462 kts 338°
2026-04-14 04:52 25.41942 7.13479 35955 ft 463 kts 338°
2026-04-14 04:53 25.48364 7.12784 35977 ft 463 kts 338°
2026-04-14 04:53 25.54749 7.12089 35955 ft 465 kts 338°
2026-04-14 04:54 25.61206 7.11386 35970 ft 466 kts 338°
2026-04-14 04:54 25.67657 7.10690 35962 ft 465 kts 338°
2026-04-14 04:55 25.74111 7.09990 35978 ft 465 kts 338°
2026-04-14 04:55 25.80519 7.09293 35983 ft 465 kts 338°
2026-04-14 04:56 25.86973 7.08588 35973 ft 466 kts 338°
2026-04-14 04:56 25.93451 7.07880 35986 ft 468 kts 338°
2026-04-14 04:57 25.99947 7.07179 35981 ft 469 kts 338°
2026-04-14 04:57 26.06424 7.06489 35986 ft 469 kts 338°
2026-04-14 04:58 26.12919 7.05787 35998 ft 467 kts 339°
2026-04-14 04:58 26.19365 7.05091 35991 ft 467 kts 339°
2026-04-14 04:59 26.25860 7.04394 35984 ft 467 kts 339°
2026-04-14 04:59 26.32295 7.03703 35984 ft 467 kts 339°
2026-04-14 05:00 26.38772 7.03006 35982 ft 467 kts 339°
2026-04-14 05:00 26.45223 7.02311 35985 ft 467 kts 340°
2026-04-14 05:01 26.51714 7.01611 35998 ft 468 kts 340°
2026-04-14 05:01 26.58162 7.00929 35987 ft 467 kts 340°
2026-04-14 05:02 26.64652 7.00241 35986 ft 469 kts 340°
2026-04-14 05:02 26.71188 6.99529 36034 ft 473 kts 340°
2026-04-14 05:03 26.77684 6.98818 35997 ft 468 kts 340°
2026-04-14 05:03 26.84139 6.98112 35996 ft 467 kts 340°
2026-04-14 05:04 26.90626 6.97395 35993 ft 467 kts 340°
2026-04-14 05:04 26.97060 6.96697 35981 ft 465 kts 340°
2026-04-14 05:05 27.03521 6.95996 36006 ft 466 kts 341°
2026-04-14 05:05 27.10002 6.95287 35996 ft 467 kts 341°
2026-04-14 05:06 27.16438 6.94585 35996 ft 467 kts 341°
2026-04-14 05:06 27.22931 6.93878 35997 ft 467 kts 341°
2026-04-14 05:07 27.28323 6.93288 35999 ft 467 kts 341°
2026-04-14 05:07 27.34797 6.92580 35999 ft 467 kts 342°
2026-04-14 05:08 27.41253 6.91872 35997 ft 467 kts 342°
2026-04-14 05:08 27.47724 6.91162 36000 ft 467 kts 342°
2026-04-14 05:09 27.54153 6.90456 35999 ft 467 kts 342°
2026-04-14 05:09 27.60634 6.89744 35997 ft 467 kts 342°
2026-04-14 05:10 27.67117 6.89030 36000 ft 467 kts 342°
2026-04-14 05:10 27.73550 6.88320 36001 ft 467 kts 342°
2026-04-14 05:11 27.80029 6.87605 36006 ft 467 kts 342°
2026-04-14 05:11 27.86500 6.86890 36002 ft 466 kts 342°
2026-04-14 05:12 27.92923 6.86179 36009 ft 466 kts 343°
2026-04-14 05:12 27.99417 6.85459 36007 ft 467 kts 343°
2026-04-14 05:13 28.05848 6.84746 36004 ft 467 kts 343°
2026-04-14 05:13 28.12482 6.84842 36004 ft 491 kts
2026-04-14 05:13 28.15801 6.85870 36007 ft 507 kts 13°
2026-04-14 05:14 28.19037 6.87595 36010 ft 515 kts 20°
2026-04-14 05:14 28.25287 6.91604 36007 ft 519 kts 24°
2026-04-14 05:15 28.31506 6.95830 36005 ft 518 kts 24°
2026-04-14 05:15 28.37677 6.99986 36006 ft 518 kts 23°
2026-04-14 05:16 28.43902 7.04126 36007 ft 518 kts 23°
2026-04-14 05:16 28.50129 7.08254 36020 ft 517 kts 23°
2026-04-14 05:17 28.56303 7.12352 36006 ft 515 kts 23°
2026-04-14 05:17 28.62500 7.16472 36002 ft 514 kts 23°
2026-04-14 05:18 28.68664 7.20575 36008 ft 514 kts 23°
2026-04-14 05:18 28.74860 7.24707 36006 ft 515 kts 23°
2026-04-14 05:19 28.81003 7.28811 36008 ft 511 kts 23°
2026-04-14 05:19 28.87137 7.32917 36005 ft 509 kts 23°
2026-04-14 05:20 28.93213 7.36985 36006 ft 509 kts 23°
2026-04-14 05:20 28.99338 7.41090 36004 ft 509 kts 23°
2026-04-14 05:21 29.05450 7.45193 36030 ft 509 kts 23°
2026-04-14 05:21 29.11502 7.49265 36004 ft 507 kts 23°
2026-04-14 05:22 29.17599 7.53371 36008 ft 506 kts 23°
2026-04-14 05:22 29.23675 7.57468 36007 ft 506 kts 23°
2026-04-14 05:23 29.29734 7.61557 36002 ft 509 kts 24°
2026-04-14 05:23 29.35862 7.65697 36000 ft 510 kts 24°
2026-04-14 05:24 29.41921 7.69803 36009 ft 509 kts 24°
2026-04-14 05:24 29.48027 7.73946 36003 ft 508 kts 24°
2026-04-14 05:25 29.54130 7.78075 35995 ft 508 kts 23°
2026-04-14 05:25 29.60211 7.82157 36044 ft 508 kts 23°
2026-04-14 05:26 29.66323 7.86266 35999 ft 507 kts 23°
2026-04-14 05:26 29.72377 7.90348 35992 ft 506 kts 23°
2026-04-14 05:27 29.78441 7.94446 35995 ft 506 kts 23°
2026-04-14 05:27 29.84547 7.98572 35988 ft 507 kts 24°
2026-04-14 05:28 29.90658 8.02694 36006 ft 508 kts 24°
2026-04-14 05:28 29.96745 8.06810 35989 ft 508 kts 23°
2026-04-14 05:29 30.02820 8.10922 35985 ft 508 kts 24°
2026-04-14 05:29 30.08931 8.15064 35989 ft 508 kts 24°
2026-04-14 05:30 30.15015 8.19177 36013 ft 508 kts 24°
2026-04-14 05:30 30.21121 8.23309 35989 ft 506 kts 24°
2026-04-14 05:31 30.27177 8.27414 35984 ft 506 kts 24°
2026-04-14 05:31 30.33269 8.31550 35981 ft 506 kts 24°
2026-04-14 05:32 30.39320 8.35663 35957 ft 506 kts 24°
2026-04-14 05:32 30.45425 8.39818 35986 ft 509 kts 24°
2026-04-14 05:33 30.51540 8.43977 35976 ft 509 kts 24°
2026-04-14 05:33 30.57647 8.48094 35975 ft 509 kts 24°
2026-04-14 05:34 30.66825 8.54287 35972 ft 509 kts 24°
2026-04-14 05:34 30.72955 8.58441 35974 ft 508 kts 24°
2026-04-14 05:35 30.79018 8.62557 35974 ft 507 kts 24°
2026-04-14 05:35 30.85121 8.66705 35971 ft 507 kts 24°
2026-04-14 05:36 30.91224 8.70858 35972 ft 507 kts 24°
2026-04-14 05:36 30.97314 8.75009 35979 ft 509 kts 24°
2026-04-14 05:37 31.03387 8.79155 35966 ft 508 kts 24°
2026-04-14 05:37 31.09502 8.83337 35963 ft 508 kts 24°
2026-04-14 05:38 31.15611 8.87521 35963 ft 508 kts 24°
2026-04-14 05:38 31.21683 8.91685 36000 ft 508 kts 24°
2026-04-14 05:39 31.27791 8.95881 35958 ft 507 kts 24°
2026-04-14 05:39 31.33875 9.00067 35957 ft 506 kts 24°
2026-04-14 05:40 31.39924 9.04233 35957 ft 506 kts 24°
2026-04-14 05:40 31.46005 9.08429 35955 ft 506 kts 24°
2026-04-14 05:41 31.52053 9.12609 35952 ft 507 kts 25°
2026-04-14 05:41 31.58109 9.16800 35949 ft 506 kts 25°
2026-04-14 05:42 31.64182 9.21010 35948 ft 506 kts 25°
2026-04-14 05:42 31.70455 9.24453 35941 ft 491 kts
2026-04-14 05:43 31.73773 9.25189 35981 ft 479 kts 356°
2026-04-14 05:43 31.77092 9.25371 35944 ft 473 kts 353°
2026-04-14 05:43 31.83666 9.25323 35950 ft 471 kts 350°
2026-04-14 05:44 31.90198 9.25124 35934 ft 471 kts 350°
2026-04-14 05:44 31.96730 9.24944 35945 ft 471 kts 351°
2026-04-14 05:45 32.03298 9.24799 35953 ft 472 kts 351°
2026-04-14 05:45 32.09892 9.24665 35937 ft 473 kts 351°
2026-04-14 05:46 32.16454 9.24535 35938 ft 473 kts 351°
2026-04-14 05:46 32.23051 9.24403 35933 ft 473 kts 351°
2026-04-14 05:47 32.29658 9.24267 35955 ft 474 kts 351°
2026-04-14 05:47 32.36210 9.24131 35931 ft 474 kts 351°
2026-04-14 05:48 32.42840 9.23995 35926 ft 475 kts 351°
2026-04-14 05:48 32.49417 9.23861 35935 ft 474 kts 351°
2026-04-14 05:49 32.56031 9.23725 35960 ft 475 kts 352°
2026-04-14 05:49 32.62662 9.23587 35924 ft 477 kts 352°
2026-04-14 05:50 32.69276 9.23450 35925 ft 477 kts 352°
2026-04-14 05:50 32.75934 9.23313 35925 ft 477 kts 352°
2026-04-14 05:51 32.82586 9.23175 35940 ft 477 kts 352°
2026-04-14 05:51 32.89203 9.23038 35922 ft 479 kts 352°
2026-04-14 05:52 32.95889 9.22898 35921 ft 479 kts 352°
2026-04-14 05:52 33.02531 9.22761 35922 ft 479 kts 352°
2026-04-14 05:53 33.09219 9.22623 35920 ft 479 kts 352°
2026-04-14 05:53 33.15857 9.22484 35920 ft 479 kts 352°
2026-04-14 05:54 33.22543 9.22345 35920 ft 479 kts 352°
2026-04-14 05:54 33.29180 9.22206 35921 ft 479 kts 352°
2026-04-14 05:55 33.34735 9.22089 35946 ft 479 kts 353°
2026-04-14 05:55 33.41428 9.21949 35919 ft 479 kts 353°
2026-04-14 05:56 33.48100 9.21809 35914 ft 479 kts 353°
2026-04-14 05:56 33.54738 9.21669 35914 ft 479 kts 353°
2026-04-14 05:57 33.61417 9.21529 35930 ft 479 kts 353°
2026-04-14 05:57 33.68061 9.21388 35909 ft 478 kts 354°
2026-04-14 05:58 33.74725 9.21248 35913 ft 478 kts 354°
2026-04-14 05:58 33.81394 9.21107 35904 ft 478 kts 354°
2026-04-14 05:59 33.88054 9.20965 35925 ft 478 kts 354°
2026-04-14 05:59 33.94680 9.20824 35908 ft 479 kts 354°
2026-04-14 06:00 34.01363 9.20682 35907 ft 479 kts 354°
2026-04-14 06:00 34.08035 9.20540 35908 ft 479 kts 354°
2026-04-14 06:01 34.14673 9.20398 35922 ft 479 kts 355°
2026-04-14 06:01 34.21361 9.20255 35910 ft 480 kts 355°
2026-04-14 06:02 34.28046 9.19995 35900 ft 480 kts 353°
2026-04-14 06:02 34.34676 9.19598 35899 ft 479 kts 353°
2026-04-14 06:03 34.41367 9.19203 35908 ft 480 kts 353°
2026-04-14 06:04 34.51365 9.18655 35915 ft 481 kts 353°
2026-04-14 06:04 34.58020 9.18300 35912 ft 481 kts 353°
2026-04-14 06:05 34.64727 9.17941 35931 ft 481 kts 353°
2026-04-14 06:05 34.71373 9.17584 35912 ft 480 kts 354°
2026-04-14 06:06 34.78060 9.17224 35914 ft 479 kts 354°
2026-04-14 06:06 34.84731 9.16863 35912 ft 479 kts 354°
2026-04-14 06:07 34.91343 9.16303 35918 ft 477 kts 350°
2026-04-14 06:07 34.97917 9.15254 35911 ft 475 kts 348°
2026-04-14 06:08 35.04454 9.14180 35910 ft 475 kts 349°
2026-04-14 06:08 35.11043 9.13173 35915 ft 476 kts 349°
2026-04-14 06:09 35.17622 9.12209 35917 ft 476 kts 350°
2026-04-14 06:09 35.24177 9.11255 35910 ft 475 kts 350°
2026-04-14 06:10 35.30767 9.10292 35912 ft 475 kts 350°
2026-04-14 06:10 35.37304 9.09332 35917 ft 476 kts 350°
2026-04-14 06:11 35.43892 9.08362 35936 ft 473 kts 351°
2026-04-14 06:11 35.50385 9.07406 35919 ft 470 kts 351°
2026-04-14 06:12 35.56895 9.06452 35925 ft 470 kts 351°
2026-04-14 06:12 35.63366 9.05619 35938 ft 470 kts 352°
2026-04-14 06:13 35.69896 9.04821 35936 ft 470 kts 352°
2026-04-14 06:13 35.76392 9.04013 35934 ft 470 kts 352°
2026-04-14 06:14 35.82910 9.03188 35935 ft 470 kts 352°
2026-04-14 06:14 35.89437 9.02356 35934 ft 470 kts 352°
2026-04-14 06:15 35.95955 9.01523 35934 ft 470 kts 352°
2026-04-14 06:15 36.02430 9.00696 35930 ft 470 kts 352°
2026-04-14 06:16 36.08947 8.99867 35940 ft 470 kts 352°
2026-04-14 06:16 36.15427 8.99036 35927 ft 470 kts 352°
2026-04-14 06:17 36.21933 8.98199 35934 ft 469 kts 352°
2026-04-14 06:17 36.28399 8.97368 35927 ft 468 kts 352°
2026-04-14 06:18 36.34901 8.96531 35932 ft 468 kts 352°
2026-04-14 06:18 36.41350 8.95699 35929 ft 468 kts 352°
2026-04-14 06:19 36.47844 8.94861 35923 ft 468 kts 352°
2026-04-14 06:19 36.54335 8.94022 35922 ft 468 kts 352°
2026-04-14 06:20 36.60771 8.93188 35918 ft 468 kts 352°
2026-04-14 06:20 36.67257 8.92346 35920 ft 467 kts 353°
2026-04-14 06:21 36.73730 8.91504 35924 ft 466 kts 353°
2026-04-14 06:21 36.80150 8.90668 35916 ft 466 kts 353°
2026-04-14 06:22 36.86617 8.89825 35905 ft 466 kts 353°
2026-04-14 06:22 36.93089 8.88979 35908 ft 467 kts 353°
2026-04-14 06:23 36.99547 8.88408 35907 ft 468 kts 358°
2026-04-14 06:23 37.06067 8.88331 35922 ft 468 kts 359°
2026-04-14 06:24 37.12555 8.88337 35908 ft 468 kts 359°
2026-04-14 06:24 37.19078 8.88352 35912 ft 468 kts 359°
2026-04-14 06:25 37.25614 8.88359 35912 ft 469 kts 359°
2026-04-14 06:25 37.32105 8.88360 35915 ft 469 kts 359°
2026-04-14 06:26 37.38645 8.88359 35906 ft 469 kts 359°
2026-04-14 06:26 37.45142 8.88359 35907 ft 469 kts 359°
2026-04-14 06:27 37.51682 8.88359 35904 ft 469 kts 359°
2026-04-14 06:27 37.58217 8.88359 35901 ft 469 kts 359°
2026-04-14 06:28 37.64705 8.88359 35899 ft 469 kts 359°
2026-04-14 06:28 37.71256 8.88359 35895 ft 469 kts 359°
2026-04-14 06:29 37.77749 8.88359 35895 ft 469 kts 359°
2026-04-14 06:29 37.84308 8.88359 35893 ft 469 kts 359°
2026-04-14 06:30 37.90810 8.88359 35891 ft 470 kts 359°
2026-04-14 06:30 37.97351 8.88360 35903 ft 469 kts 359°
2026-04-14 06:31 38.03891 8.88359 35891 ft 469 kts 359°
2026-04-14 06:31 38.10393 8.88359 35886 ft 469 kts 359°
2026-04-14 06:32 38.16936 8.88359 35882 ft 469 kts 359°
2026-04-14 06:32 38.23421 8.88360 35894 ft 469 kts 359°
2026-04-14 06:33 38.29967 8.88360 35884 ft 469 kts 359°
2026-04-14 06:33 38.36518 8.88360 35880 ft 469 kts 359°
2026-04-14 06:34 38.46284 8.88361 35883 ft 468 kts 359°
2026-04-14 06:34 38.52807 8.88361 35872 ft 468 kts 359°
2026-04-14 06:35 38.59283 8.88771 35873 ft 469 kts
2026-04-14 06:35 38.65778 8.89613 35882 ft 468 kts
2026-04-14 06:36 38.72274 8.90427 35871 ft 468 kts
2026-04-14 06:36 38.78729 8.91155 35876 ft 467 kts
2026-04-14 06:37 38.85198 8.91850 35863 ft 464 kts
2026-04-14 06:37 38.91608 8.92536 35876 ft 463 kts
2026-04-14 06:38 38.98048 8.93230 35859 ft 463 kts
2026-04-14 06:38 39.04489 8.93927 35864 ft 464 kts
2026-04-14 06:39 39.10906 8.94623 35852 ft 465 kts
2026-04-14 06:39 39.17377 8.95327 35858 ft 465 kts
2026-04-14 06:40 39.23796 8.96027 35853 ft 465 kts
2026-04-14 06:40 39.30233 8.96729 35832 ft 462 kts
2026-04-14 06:41 39.36620 8.97262 35831 ft 461 kts 359°
2026-04-14 06:41 39.41959 8.97058 35852 ft 461 kts 358°
2026-04-14 06:42 39.48347 8.96661 35857 ft 461 kts 357°
2026-04-14 06:42 39.54780 8.96220 35848 ft 461 kts 357°
2026-04-14 06:43 39.61163 8.95790 35858 ft 461 kts 357°
2026-04-14 06:43 39.67583 8.95367 35861 ft 461 kts 357°
2026-04-14 06:44 39.73994 8.94947 35860 ft 460 kts 357°
2026-04-14 06:44 39.80395 8.94528 35861 ft 459 kts 357°
2026-04-14 06:45 39.86729 8.94111 35855 ft 459 kts 357°
2026-04-14 06:45 39.93127 8.93689 35854 ft 458 kts 357°
2026-04-14 06:46 40.02646 8.93060 35849 ft 457 kts 357°
2026-04-14 06:47 40.09016 8.92639 35854 ft 457 kts 357°
2026-04-14 06:47 40.15334 8.92219 35841 ft 457 kts 358°
2026-04-14 06:48 40.21710 8.91794 35842 ft 457 kts 358°
2026-04-14 06:48 40.28081 8.91370 35847 ft 458 kts 357°
2026-04-14 06:49 40.34403 8.90948 35840 ft 457 kts 358°
2026-04-14 06:49 40.40767 8.90523 35842 ft 457 kts 358°
2026-04-14 06:50 40.47142 8.90097 35845 ft 457 kts 358°
2026-04-14 06:50 40.53472 8.89673 35843 ft 458 kts 358°
2026-04-14 06:51 40.59846 8.89245 35837 ft 456 kts 357°
2026-04-14 06:51 40.66143 8.88821 35828 ft 455 kts 357°
2026-04-14 06:52 40.72472 8.88394 35826 ft 454 kts 357°
2026-04-14 06:52 40.78800 8.87965 35823 ft 454 kts 357°
2026-04-14 06:53 40.85084 8.87538 35827 ft 453 kts 358°
2026-04-14 06:53 40.91358 8.87112 35821 ft 453 kts 357°
2026-04-14 06:54 40.97675 8.86682 35818 ft 453 kts 358°
2026-04-14 06:54 41.03947 8.86254 35815 ft 452 kts 358°
2026-04-14 06:55 41.10246 8.85824 35814 ft 451 kts 357°
2026-04-14 06:55 41.16488 8.85397 35814 ft 451 kts 357°
2026-04-14 06:56 41.22774 8.84937 35809 ft 451 kts 354°
2026-04-14 06:56 41.28900 8.83137 35810 ft 450 kts 343°
2026-04-14 06:57 41.35010 8.81592 35812 ft 449 kts 358°
2026-04-14 06:57 41.41269 8.81591 35809 ft 449 kts
2026-04-14 06:58 41.47500 8.81901 35809 ft 449 kts
2026-04-14 06:58 41.53759 8.82272 35821 ft 448 kts
2026-04-14 06:59 41.59964 8.82622 35819 ft 448 kts
2026-04-14 06:59 41.66196 8.82956 35821 ft 448 kts
2026-04-14 07:00 41.72436 8.83286 35821 ft 447 kts
2026-04-14 07:00 41.78626 8.83614 35825 ft 447 kts
2026-04-14 07:01 41.84863 8.83945 35831 ft 447 kts
2026-04-14 07:01 41.91049 8.84276 35826 ft 447 kts
2026-04-14 07:02 41.97276 8.84609 35828 ft 446 kts
2026-04-14 07:02 42.03469 8.84941 35826 ft 446 kts
2026-04-14 07:03 42.09690 8.85274 35830 ft 446 kts
2026-04-14 07:03 42.15867 8.85606 35824 ft 446 kts
2026-04-14 07:04 42.22045 8.85939 35834 ft 446 kts
2026-04-14 07:04 42.28249 8.86274 35839 ft 445 kts
2026-04-14 07:05 42.34455 8.86610 35851 ft 444 kts
2026-04-14 07:05 42.40609 8.86944 35849 ft 444 kts
2026-04-14 07:06 42.46806 8.87282 35855 ft 444 kts
2026-04-14 07:06 42.52964 8.87617 35860 ft 444 kts
2026-04-14 07:07 42.59159 8.87955 35857 ft 444 kts
2026-04-14 07:07 42.65318 8.88292 35851 ft 444 kts
2026-04-14 07:08 42.71508 8.88630 35849 ft 444 kts
2026-04-14 07:08 42.77648 8.88966 35851 ft 443 kts
2026-04-14 07:09 42.83832 8.89354 35851 ft 443 kts
2026-04-14 07:09 42.89960 8.90076 35854 ft 443 kts
2026-04-14 07:10 42.96119 8.90877 35848 ft 443 kts
2026-04-14 07:10 43.02235 8.91628 35857 ft 442 kts
2026-04-14 07:11 43.08341 8.92347 35861 ft 442 kts
2026-04-14 07:11 43.14474 8.93061 35853 ft 441 kts
2026-04-14 07:12 43.20604 8.93778 35857 ft 441 kts
2026-04-14 07:12 43.26693 8.94479 35860 ft 441 kts
2026-04-14 07:13 43.32781 8.95158 35933 ft 439 kts
2026-04-14 07:13 43.35850 8.95500 36077 ft 442 kts
2026-04-14 07:13 43.38938 8.95845 36312 ft 444 kts
2026-04-14 07:13 43.42039 8.96087 36479 ft 446 kts
2026-04-14 07:14 43.45106 8.96115 36761 ft 446 kts 359°
2026-04-14 07:14 43.48217 8.96050 37061 ft 445 kts 359°
2026-04-14 07:14 43.51319 8.95966 37314 ft 446 kts 359°
2026-04-14 07:14 43.54419 8.95898 37682 ft 444 kts 359°
2026-04-14 07:15 43.57515 8.95854 37851 ft 446 kts 359°
2026-04-14 07:15 43.63725 8.95822 37852 ft 446 kts 360°
2026-04-14 07:16 43.69964 8.95994 37859 ft 453 kts
2026-04-14 07:16 43.76349 8.96354 37861 ft 464 kts
2026-04-14 07:17 43.82801 8.96704 37862 ft 465 kts
2026-04-14 07:17 43.89261 8.97019 37861 ft 463 kts
2026-04-14 07:18 43.95710 8.97319 37866 ft 463 kts
2026-04-14 07:18 44.02134 8.97617 37863 ft 464 kts
2026-04-14 07:19 44.08598 8.97920 37862 ft 463 kts
2026-04-14 07:19 44.15044 8.98225 37861 ft 462 kts
2026-04-14 07:20 44.21449 8.98528 37866 ft 463 kts
2026-04-14 07:20 44.27892 8.98833 37865 ft 463 kts
2026-04-14 07:21 44.34329 8.99137 37882 ft 462 kts
2026-04-14 07:21 44.40734 8.99441 37881 ft 461 kts
2026-04-14 07:22 44.47151 8.99746 37881 ft 462 kts
2026-04-14 07:22 44.53601 9.00053 37886 ft 462 kts
2026-04-14 07:23 44.59996 9.00358 37889 ft 462 kts
2026-04-14 07:23 44.66437 9.00665 37894 ft 462 kts
2026-04-14 07:24 44.72856 9.00973 37901 ft 463 kts
2026-04-14 07:24 44.79326 9.01284 37905 ft 464 kts
2026-04-14 07:25 44.85761 9.01594 37909 ft 464 kts
2026-04-14 07:25 44.92224 9.01907 37919 ft 464 kts
2026-04-14 07:26 44.98513 9.02211 37924 ft 464 kts
2026-04-14 07:26 45.04972 9.02524 37936 ft 464 kts
2026-04-14 07:27 45.11433 9.02838 37936 ft 466 kts
2026-04-14 07:27 45.17937 9.03156 37932 ft 466 kts
2026-04-14 07:28 45.24390 9.03471 37935 ft 466 kts
2026-04-14 07:28 45.30898 9.03790 37935 ft 467 kts
2026-04-14 07:29 45.36306 9.04055 37936 ft 467 kts
2026-04-14 07:29 45.42821 9.04375 37937 ft 467 kts
2026-04-14 07:30 45.49283 9.04694 37932 ft 467 kts
2026-04-14 07:30 45.55785 9.05015 37938 ft 467 kts
2026-04-14 07:31 45.62259 9.05335 37938 ft 467 kts
2026-04-14 07:31 45.68771 9.05659 37939 ft 467 kts
2026-04-14 07:32 45.75281 9.05983 37935 ft 467 kts
2026-04-14 07:32 45.81746 9.06305 37942 ft 467 kts
2026-04-14 07:33 45.88269 9.06631 37937 ft 467 kts
2026-04-14 07:33 45.94745 9.06955 37939 ft 467 kts
2026-04-14 07:34 46.07684 9.05676 37939 ft 466 kts 353°
2026-04-14 07:35 46.14137 9.04610 37964 ft 466 kts 353°
2026-04-14 07:35 46.20564 9.03776 37966 ft 466 kts 357°
2026-04-14 07:36 46.27065 9.03597 37964 ft 465 kts 359°
2026-04-14 07:36 46.33562 9.03473 37967 ft 466 kts 358°
2026-04-14 07:37 46.40009 9.03253 37983 ft 466 kts 358°
2026-04-14 07:37 46.46513 9.02975 38023 ft 465 kts 358°
2026-04-14 07:38 46.52955 9.02687 38022 ft 465 kts 358°
2026-04-14 07:38 46.59449 9.02399 38021 ft 466 kts 358°
2026-04-14 07:39 46.65885 9.02117 38053 ft 466 kts 358°
2026-04-14 07:39 46.72395 9.01832 38073 ft 466 kts 358°
2026-04-14 07:40 46.78858 9.01549 38090 ft 466 kts 358°
2026-04-14 07:40 46.85357 9.01263 38076 ft 467 kts 358°
2026-04-14 07:41 46.91836 9.00978 38110 ft 467 kts 358°
2026-04-14 07:41 46.98345 9.00689 38115 ft 467 kts 357°
2026-04-14 07:42 47.04846 9.00401 38119 ft 467 kts 357°
2026-04-14 07:42 47.11319 9.00114 38119 ft 467 kts 357°
2026-04-14 07:43 47.17829 8.99824 38123 ft 467 kts 357°
2026-04-14 07:43 47.24335 8.99534 38134 ft 467 kts 357°
2026-04-14 07:44 47.30819 8.99244 38119 ft 468 kts 357°
2026-04-14 07:44 47.37340 8.98953 38123 ft 468 kts 357°
2026-04-14 07:45 47.43820 8.98661 38126 ft 468 kts 357°
2026-04-14 07:45 47.50362 8.98366 38131 ft 468 kts 357°
2026-04-14 07:46 47.56828 8.98073 38131 ft 468 kts 357°
2026-04-14 07:46 47.63357 8.97778 38115 ft 468 kts 357°
2026-04-14 07:47 47.69879 8.97481 38117 ft 468 kts 357°
2026-04-14 07:47 47.76361 8.97187 38118 ft 468 kts 357°
2026-04-14 07:48 47.82896 8.96889 38135 ft 468 kts 357°
2026-04-14 07:48 47.89366 8.96592 38116 ft 468 kts 357°
2026-04-14 07:49 47.95899 8.96293 38126 ft 468 kts 357°
2026-04-14 07:49 48.02423 8.95993 38128 ft 469 kts 357°
2026-04-14 07:50 48.08906 8.95695 38117 ft 467 kts 357°
2026-04-14 07:50 48.15393 8.95396 38118 ft 465 kts 357°
2026-04-14 07:51 48.21846 8.96198 38121 ft 466 kts 12°
2026-04-14 07:51 48.27807 8.99856 38111 ft 469 kts 31°
2026-04-14 07:52 48.32623 9.06460 38116 ft 473 kts 52°
2026-04-14 07:52 48.34349 9.10687 38117 ft 476 kts 63°
2026-04-14 07:52 48.35561 9.15331 38106 ft 479 kts 73°
2026-04-14 07:53 48.36380 9.25205 38105 ft 482 kts 92°
2026-04-14 07:53 48.35927 9.30196 38108 ft 483 kts 103°
2026-04-14 07:53 48.34876 9.35002 38104 ft 483 kts 114°
2026-04-14 07:54 48.31168 9.43299 38102 ft 483 kts 135°
2026-04-14 07:54 48.28611 9.46584 38103 ft 482 kts 146°
2026-04-14 07:54 48.25734 9.49181 38100 ft 481 kts 153°
2026-04-14 07:55 48.19440 9.52180 38118 ft 476 kts 174°
2026-04-14 07:55 48.12819 9.52772 38097 ft 476 kts 179°
2026-04-14 07:56 48.06187 9.53095 38096 ft 477 kts 178°
2026-04-14 07:56 47.99587 9.53620 38100 ft 477 kts 178°
2026-04-14 07:57 47.92934 9.54123 38097 ft 477 kts 178°
2026-04-14 07:57 47.86356 9.53899 38097 ft 475 kts 189°
2026-04-14 07:57 47.83144 9.52762 38101 ft 474 kts 200°
2026-04-14 07:58 47.80127 9.50800 38137 ft 472 kts 210°
2026-04-14 07:58 47.75060 9.44661 38141 ft 471 kts 230°
2026-04-14 07:59 47.71697 9.36436 38100 ft 469 kts 249°
2026-04-14 07:59 47.70345 9.26987 38114 ft 468 kts 269°
2026-04-14 08:00 47.71157 9.17527 38119 ft 464 kts 288°
2026-04-14 08:00 47.74096 9.09033 38126 ft 463 kts 308°
2026-04-14 08:01 47.78785 9.02517 38120 ft 463 kts 327°
2026-04-14 08:01 47.84645 8.98685 38117 ft 465 kts 346°
2026-04-14 08:02 47.91042 8.97429 38118 ft 467 kts 355°
2026-04-14 08:02 47.97573 8.96888 38119 ft 468 kts 356°
2026-04-14 08:03 48.04040 8.96422 38119 ft 468 kts 356°
2026-04-14 08:03 48.10550 8.95886 38122 ft 466 kts 356°
2026-04-14 08:04 48.16978 8.95408 38125 ft 465 kts 360°
2026-04-14 08:04 48.23383 8.96809 38110 ft 466 kts 17°
2026-04-14 08:05 48.29123 9.01209 38113 ft 469 kts 36°
2026-04-14 08:05 48.31566 9.04549 38114 ft 471 kts 47°
2026-04-14 08:05 48.33518 9.08435 38115 ft 474 kts 58°
2026-04-14 08:06 48.35947 9.17683 38103 ft 480 kts 77°
2026-04-14 08:06 48.36223 9.27711 38102 ft 482 kts 97°
2026-04-14 08:06 48.35491 9.32559 38100 ft 483 kts 108°
2026-04-14 08:07 48.34160 9.37202 38121 ft 483 kts 119°
2026-04-14 08:07 48.32285 9.41397 38099 ft 483 kts 130°
2026-04-14 08:07 48.29935 9.45013 38099 ft 483 kts 140°
2026-04-14 08:08 48.24270 9.50240 38103 ft 480 kts 157°
2026-04-14 08:08 48.21111 9.51828 38107 ft 477 kts 169°
2026-04-14 08:08 48.17820 9.52510 38106 ft 476 kts 176°
2026-04-14 08:09 48.11228 9.52883 38103 ft 476 kts 180°
2026-04-14 08:09 48.04586 9.53170 38106 ft 477 kts 178°
2026-04-14 08:10 47.97983 9.53720 38109 ft 477 kts 177°
2026-04-14 08:10 47.91375 9.54279 38104 ft 477 kts 178°
2026-04-14 08:11 47.84779 9.53431 38096 ft 475 kts 194°
2026-04-14 08:11 47.78745 9.49569 38131 ft 472 kts 215°
2026-04-14 08:12 47.74070 9.42864 38133 ft 470 kts 235°
2026-04-14 08:12 47.71151 9.34212 38116 ft 469 kts 254°
2026-04-14 08:13 47.70340 9.24716 38119 ft 467 kts 274°
2026-04-14 08:13 47.71693 9.15336 38121 ft 464 kts 293°
2026-04-14 08:14 47.75082 9.07281 38123 ft 463 kts 312°
2026-04-14 08:14 47.80110 9.01338 38120 ft 463 kts 331°
2026-04-14 08:15 47.86156 8.98220 38122 ft 465 kts 350°
2026-04-14 08:15 47.92623 8.97271 38121 ft 467 kts 355°
2026-04-14 08:16 47.99094 8.96782 38122 ft 467 kts 356°
2026-04-14 08:16 48.05599 8.96299 38123 ft 467 kts 356°
2026-04-14 08:17 48.12087 8.95751 38124 ft 465 kts 356°
2026-04-14 08:17 48.18526 8.95490 38125 ft 465 kts
2026-04-14 08:18 48.24841 8.97582 38122 ft 467 kts 21°
2026-04-14 08:18 48.30345 9.02723 38109 ft 469 kts 41°
2026-04-14 08:19 48.34302 9.10535 38107 ft 475 kts 63°
2026-04-14 08:19 48.36050 9.18360 38118 ft 478 kts 79°
2026-04-14 08:19 48.36373 9.24986 38117 ft 480 kts 92°
2026-04-14 08:20 48.36152 9.28307 38117 ft 481 kts 99°
2026-04-14 08:20 48.35329 9.33169 38117 ft 482 kts 110°
2026-04-14 08:20 48.33928 9.37738 38099 ft 482 kts 120°
2026-04-14 08:20 48.31996 9.41850 38119 ft 482 kts 131°
2026-04-14 08:21 48.29602 9.45374 38095 ft 482 kts 141°
2026-04-14 08:21 48.23828 9.50387 38106 ft 479 kts 160°
2026-04-14 08:21 48.20627 9.51743 38107 ft 478 kts 171°
2026-04-14 08:22 48.17338 9.52378 38107 ft 476 kts 176°
2026-04-14 08:22 48.10704 9.52843 38107 ft 477 kts 179°
2026-04-14 08:23 48.04097 9.53283 38109 ft 477 kts 178°
2026-04-14 08:23 47.97444 9.53774 38112 ft 477 kts 178°
2026-04-14 08:24 47.90801 9.54270 38112 ft 477 kts 179°
2026-04-14 08:24 47.84257 9.53245 38112 ft 475 kts 196°
2026-04-14 08:25 47.78300 9.49109 38127 ft 472 kts 217°
2026-04-14 08:25 47.73753 9.42243 38131 ft 470 kts 236°
2026-04-14 08:26 47.70996 9.33463 38119 ft 469 kts 256°
2026-04-14 08:26 47.70365 9.23938 38121 ft 467 kts 275°
2026-04-14 08:27 47.71907 9.14631 38121 ft 464 kts 295°
2026-04-14 08:27 47.75433 9.06737 38124 ft 463 kts 314°
2026-04-14 08:28 47.80568 9.00982 38125 ft 463 kts 333°
2026-04-14 08:28 47.86676 8.98100 38129 ft 464 kts 352°
2026-04-14 08:29 47.93132 8.97225 38124 ft 466 kts 356°
2026-04-14 08:29 47.99604 8.96976 38126 ft 467 kts
2026-04-14 08:30 48.06110 8.97351 38122 ft 467 kts
2026-04-14 08:30 48.12611 8.97850 38124 ft 467 kts
2026-04-14 08:31 48.19107 8.98345 38087 ft 465 kts
2026-04-14 08:31 48.25518 8.98690 36861 ft 465 kts
2026-04-14 08:31 48.28755 8.98861 36110 ft 467 kts
2026-04-14 08:32 48.32000 8.99035 35158 ft 463 kts
2026-04-14 08:32 48.35212 8.99211 34262 ft 458 kts
2026-04-14 08:32 48.38403 8.99385 33448 ft 459 kts
2026-04-14 08:32 48.41598 8.99562 32693 ft 460 kts
2026-04-14 08:33 48.44806 8.99739 31941 ft 460 kts
2026-04-14 08:33 48.47973 8.99944 31162 ft 462 kts
2026-04-14 08:33 48.51181 9.00423 30561 ft 460 kts
2026-04-14 08:33 48.54355 9.00966 30027 ft 456 kts
2026-04-14 08:34 48.57511 9.01490 29411 ft 452 kts
2026-04-14 08:34 48.60623 9.01990 28874 ft 447 kts
2026-04-14 08:34 48.63675 9.02473 28308 ft 442 kts
2026-04-14 08:34 48.66714 9.03133 27765 ft 438 kts
2026-04-14 08:35 48.69719 9.03899 27298 ft 433 kts
2026-04-14 08:35 48.72628 9.04635 26748 ft 429 kts
2026-04-14 08:35 48.75579 9.05365 26134 ft 427 kts
2026-04-14 08:35 48.78512 9.06079 25589 ft 424 kts
2026-04-14 08:36 48.81423 9.06783 25052 ft 421 kts
2026-04-14 08:36 48.84313 9.07480 24509 ft 419 kts
2026-04-14 08:36 48.87196 9.08173 23968 ft 418 kts
2026-04-14 08:36 48.90047 9.08818 23386 ft 417 kts
2026-04-14 08:37 48.92929 9.09229 22833 ft 413 kts
2026-04-14 08:37 48.95773 9.09584 22311 ft 408 kts
2026-04-14 08:37 48.98602 9.09952 21778 ft 404 kts
2026-04-14 08:37 49.01361 9.10325 21265 ft 400 kts
2026-04-14 08:38 49.04129 9.10711 20749 ft 397 kts
2026-04-14 08:38 49.06874 9.11095 20238 ft 394 kts
2026-04-14 08:38 49.09604 9.11479 19718 ft 391 kts
2026-04-14 08:38 49.12308 9.11862 19216 ft 388 kts
2026-04-14 08:39 49.14966 9.12240 18712 ft 386 kts
2026-04-14 08:39 49.17643 9.12623 18188 ft 384 kts
2026-04-14 08:39 49.20277 9.13000 17656 ft 382 kts
2026-04-14 08:39 49.22921 9.13379 17137 ft 380 kts
2026-04-14 08:40 49.25542 9.13755 16638 ft 376 kts
2026-04-14 08:40 49.28136 9.14181 16101 ft 374 kts
2026-04-14 08:40 49.30685 9.14957 15623 ft 371 kts 12°
2026-04-14 08:40 49.33198 9.15843 15116 ft 369 kts 12°
2026-04-14 08:41 49.35656 9.16721 14624 ft 367 kts 12°
2026-04-14 08:41 49.38143 9.17608 14112 ft 365 kts 12°
2026-04-14 08:41 49.40613 9.18488 13587 ft 363 kts 12°
2026-04-14 08:41 49.43073 9.19363 13077 ft 360 kts 12°
2026-04-14 08:42 49.45507 9.20229 12584 ft 357 kts 12°
2026-04-14 08:42 49.47896 9.21079 12103 ft 354 kts 12°
2026-04-14 08:42 49.50291 9.21931 11617 ft 350 kts 12°
2026-04-14 08:42 49.52658 9.22775 11140 ft 347 kts 12°
2026-04-14 08:43 49.54989 9.23607 10958 ft 337 kts 12°
2026-04-14 08:43 49.57268 9.24421 10880 ft 335 kts 12°
2026-04-14 08:43 49.59497 9.25218 10763 ft 323 kts 11°
2026-04-14 08:43 49.61649 9.25988 10640 ft 312 kts 11°
2026-04-14 08:44 49.63708 9.26727 10506 ft 303 kts 12°
2026-04-14 08:44 49.65731 9.27453 10385 ft 293 kts 11°
2026-04-14 08:44 49.67708 9.28162 10269 ft 292 kts 12°
2026-04-14 08:44 49.69700 9.28875 10181 ft 291 kts 12°
2026-04-14 08:45 49.71653 9.29572 10030 ft 291 kts 12°
2026-04-14 08:45 49.73633 9.30284 9874 ft 292 kts 12°
2026-04-14 08:45 49.75600 9.30993 9725 ft 288 kts 12°
2026-04-14 08:45 49.77551 9.31697 9576 ft 289 kts 11°
2026-04-14 08:46 49.79508 9.32403 9427 ft 287 kts 12°
2026-04-14 08:46 49.81456 9.33106 9267 ft 286 kts 12°
2026-04-14 08:46 49.83373 9.33799 9135 ft 287 kts 11°
2026-04-14 08:46 49.85315 9.34501 8988 ft 285 kts 11°
2026-04-14 08:47 49.87246 9.35202 8832 ft 285 kts 12°
2026-04-14 08:47 49.89153 9.35925 8714 ft 283 kts 12°
2026-04-14 08:47 49.91049 9.36658 8543 ft 281 kts 12°
2026-04-14 08:47 49.92955 9.37394 8431 ft 284 kts 13°
2026-04-14 08:48 49.94860 9.38127 8236 ft 280 kts 13°
2026-04-14 08:48 49.96768 9.38655 8190 ft 280 kts
2026-04-14 08:48 49.98677 9.38353 8190 ft 273 kts 342°
2026-04-14 08:48 50.00343 9.36962 8184 ft 272 kts 317°
2026-04-14 08:49 50.01340 9.34638 8042 ft 260 kts 292°
2026-04-14 08:49 50.02095 9.32076 7669 ft 261 kts 294°
2026-04-14 08:49 50.02844 9.29493 7331 ft 261 kts 294°
2026-04-14 08:49 50.03578 9.26912 7011 ft 261 kts 294°
2026-04-14 08:50 50.04305 9.24336 6665 ft 260 kts 294°
2026-04-14 08:50 50.05028 9.21766 6359 ft 258 kts 294°
2026-04-14 08:50 50.05739 9.19236 6127 ft 252 kts 294°
2026-04-14 08:50 50.06436 9.16750 5836 ft 249 kts 295°
2026-04-14 08:51 50.07126 9.14290 5616 ft 245 kts 295°
2026-04-14 08:51 50.07794 9.11901 5527 ft 235 kts 296°
2026-04-14 08:51 50.08432 9.09613 5460 ft 226 kts 295°
2026-04-14 08:51 50.09047 9.07411 5383 ft 217 kts 296°
2026-04-14 08:52 50.09631 9.05319 5314 ft 212 kts 296°
2026-04-14 08:52 50.10218 9.03216 5240 ft 210 kts 296°
2026-04-14 08:52 50.10798 9.01135 5166 ft 208 kts 296°
2026-04-14 08:52 50.11373 8.99071 5092 ft 208 kts 296°
2026-04-14 08:53 50.11951 8.96995 5020 ft 208 kts 296°
2026-04-14 08:53 50.12521 8.94939 4942 ft 203 kts 296°
2026-04-14 08:53 50.12718 8.92821 4840 ft 201 kts 259°
2026-04-14 08:53 50.12059 8.90970 4901 ft 193 kts 238°
2026-04-14 08:54 50.11365 8.89152 4811 ft 196 kts 246°
2026-04-14 08:54 50.10822 8.87219 4506 ft 194 kts 252°
2026-04-14 08:54 50.10350 8.85276 4168 ft 194 kts 253°
2026-04-14 08:54 50.09876 8.83292 3805 ft 195 kts 253°
2026-04-14 08:55 50.09403 8.81312 3492 ft 193 kts 253°
2026-04-14 08:55 50.08938 8.79363 3211 ft 190 kts 253°
2026-04-14 08:55 50.08489 8.77476 2962 ft 186 kts 253°
2026-04-14 08:55 50.08044 8.75606 2709 ft 182 kts 253°
2026-04-14 08:56 50.07609 8.73782 2457 ft 175 kts 253°
2026-04-14 08:56 50.07198 8.72058 2239 ft 164 kts 253°
2026-04-14 08:56 50.06817 8.70459 2048 ft 150 kts 253°
2026-04-14 08:56 50.06469 8.68996 1836 ft 138 kts 253°
2026-04-14 08:57 50.06144 8.67629 1649 ft 133 kts 253°
2026-04-14 08:57 50.05827 8.66300 1463 ft 133 kts 254°
2026-04-14 08:57 50.05506 8.64950 1284 ft 132 kts 252°
2026-04-14 08:57 50.05187 8.63612 1084 ft 131 kts 252°
2026-04-14 08:58 50.04866 8.62265 906 ft 134 kts 252°
2026-04-14 08:58 50.04543 8.60905 724 ft 134 kts 253°
2026-04-14 08:58 50.04211 8.59538 542 ft 136 kts 253°
2026-04-14 08:58 50.03890 8.58180 379 ft 132 kts 253°
2026-04-14 08:59 50.03615 8.57009 362 ft 99 kts 250°
2026-04-14 08:59 50.03446 8.56243 361 ft 28 kts 263°
2026-04-14 08:59 50.03443 8.56009 356 ft 23 kts 279°
2026-04-14 08:59 50.03468 8.55780 354 ft 20 kts 279°
2026-04-14 09:00 50.03488 8.55584 352 ft 19 kts 277°
2026-04-14 09:00 50.03477 8.55403 351 ft 17 kts 251°
2026-04-14 09:00 50.03434 8.55226 357 ft 18 kts 249°
2026-04-14 09:00 50.03420 8.55172 354 ft 6 kts 249°
2026-04-14 09:01 50.03387 8.55031 354 ft 21 kts 250°
2026-04-14 09:01 50.03321 8.54757 349 ft 29 kts 249°
2026-04-14 09:01 50.03295 8.54650 352 ft 5 kts 249°
2026-04-14 09:01 50.03274 8.54532 347 ft 10 kts 271°
2026-04-14 09:02 50.03301 8.54482 350 ft 5 kts 338°
2026-04-14 09:02 50.03348 8.54457 354 ft 10 kts 341°
2026-04-14 09:02 50.03439 8.54408 356 ft 16 kts 339°
2026-04-14 09:02 50.03565 8.54336 354 ft 22 kts 340°
2026-04-14 09:03 50.03667 8.54368 354 ft 16 kts 55°
2026-04-14 09:03 50.03717 8.54564 359 ft 23 kts 70°
2026-04-14 09:03 50.03780 8.54826 359 ft 27 kts 70°
2026-04-14 09:03 50.03845 8.55100 358 ft 27 kts 69°
2026-04-14 09:04 50.03909 8.55370 361 ft 27 kts 70°
2026-04-14 09:04 50.03973 8.55638 363 ft 26 kts 69°
2026-04-14 09:04 50.04036 8.55901 362 ft 26 kts 70°
2026-04-14 09:04 50.04099 8.56163 365 ft 26 kts 70°
2026-04-14 09:05 50.04161 8.56425 364 ft 25 kts 70°
2026-04-14 09:05 50.04222 8.56679 366 ft 25 kts 69°
2026-04-14 09:05 50.04337 8.56826 369 ft 22 kts 14°
2026-04-14 09:05 50.04489 8.56868 363 ft 23 kts 13°
2026-04-14 09:06 50.04612 8.56913 368 ft 0 kts 15°
2026-04-14 09:06 50.04623 8.56918 365 ft 7 kts 16°
2026-04-14 09:06 50.04674 8.56927 366 ft 3 kts 334°
2026-04-14 09:06 50.04689 8.56891 365 ft 5 kts 298°
2026-04-14 09:07 50.04701 8.56854 366 ft 1 kts 296°
2026-04-14 09:07 50.04702 8.56850 366 ft 0 kts 295°